Observation data for Hackberry on 10/31/2020      Previous  Date  Next       Current Mesonet Observations  Soil Data  Daily Summary Page  Observations in Plain Language
KHA3 310500Z 16010KT 11/03 A3016 RMK A01 T01140034  RH  058%=      5-min Rain = 0
KHA3 310501Z 16011KT 11/03 A3016 RMK A01 T01140033  RH  057%=      5-min Rain = 0
KHA3 310502Z 16011KT 11/03 A3016 RMK A01 T01140033  RH  057%=      5-min Rain = 0
KHA3 310503Z 16011KT 11/03 A3016 RMK A01 T01140033  RH  057%=      5-min Rain = 0
KHA3 310504Z 16011KT 11/03 A3016 RMK A01 T01140033  RH  057%=      5-min Rain = 0
KHA3 310505Z 16011KT 11/03 A3016 RMK A01 T01140033  RH  057%=      5-min Rain = 0
KHA3 310506Z 16009KT 12/03 A3016 RMK A01 T01150033  RH  057%=      5-min Rain = 0
KHA3 310507Z 16010KT 11/03 A3016 RMK A01 T01140034  RH  058%=      5-min Rain = 0
KHA3 310508Z 16010KT 11/03 A3016 RMK A01 T01130033  RH  058%=      5-min Rain = 0
KHA3 310509Z 16011KT 11/03 A3016 RMK A01 T01120032  RH  058%=      5-min Rain = 0
KHA3 310510Z 15010KT 11/03 A3016 RMK A01 T01130032  RH  058%=      5-min Rain = 0
KHA3 310511Z 15010KT 11/03 A3016 RMK A01 T01130032  RH  058%=      5-min Rain = 0
KHA3 310512Z 15011KT 11/03 A3016 RMK A01 T01130032  RH  058%=      5-min Rain = 0
KHA3 310513Z 15011KT 11/03 A3016 RMK A01 T01130032  RH  057%=      5-min Rain = 0
KHA3 310514Z 15011KT 11/03 A3016 RMK A01 T01140032  RH  057%=      5-min Rain = 0
KHA3 310515Z 15010KT 11/03 A3016 RMK A01 T01130032  RH  057%=      5-min Rain = 0
KHA3 310516Z 15010KT 11/03 A3016 RMK A01 T01130033  RH  058%=      5-min Rain = 0
KHA3 310517Z 15011KT 11/03 A3016 RMK A01 T01130032  RH  058%=      5-min Rain = 0
KHA3 310518Z 15011KT 11/03 A3016 RMK A01 T01130032  RH  057%=      5-min Rain = 0
KHA3 310519Z 16011KT 11/03 A3016 RMK A01 T01130032  RH  057%=      5-min Rain = 0
KHA3 310520Z 16011KT 11/03 A3016 RMK A01 T01140032  RH  057%=      5-min Rain = 0
KHA3 310521Z 15012KT 11/03 A3016 RMK A01 T01140031  RH  057%=      5-min Rain = 0
KHA3 310522Z 15011KT 11/03 A3016 RMK A01 T01140032  RH  057%=      5-min Rain = 0
KHA3 310523Z 16011KT 11/03 A3016 RMK A01 T01130032  RH  058%=      5-min Rain = 0
KHA3 310524Z 15011KT 11/03 A3016 RMK A01 T01120032  RH  058%=      5-min Rain = 0
KHA3 310525Z 16011KT 11/03 A3016 RMK A01 T01120033  RH  058%=      5-min Rain = 0
KHA3 310526Z 16011KT 11/03 A3016 RMK A01 T01120032  RH  058%=      5-min Rain = 0
KHA3 310527Z 16011KT 11/03 A3016 RMK A01 T01120032  RH  058%=      5-min Rain = 0
KHA3 310528Z 16012KT 11/03 A3015 RMK A01 T01120032  RH  058%=      5-min Rain = 0
KHA3 310529Z 16012KT 11/03 A3015 RMK A01 T01120032  RH  058%=      5-min Rain = 0
KHA3 310530Z 16013KT 11/03 A3015 RMK A01 T01120033  RH  058%=      5-min Rain = 0
KHA3 310531Z 16012KT 11/03 A3015 RMK A01 T01120033  RH  058%=      5-min Rain = 0
KHA3 310532Z 16012KT 11/03 A3015 RMK A01 T01110033  RH  059%=      5-min Rain = 0
KHA3 310533Z 16012KT 11/03 A3015 RMK A01 T01100033  RH  059%=      5-min Rain = 0
KHA3 310534Z 16013KT 11/03 A3015 RMK A01 T01090033  RH  059%=      5-min Rain = 0
KHA3 310535Z 16012KT 11/03 A3015 RMK A01 T01090033  RH  059%=      5-min Rain = 0
KHA3 310536Z 16012KT 11/03 A3015 RMK A01 T01090033  RH  059%=      5-min Rain = 0
KHA3 310537Z 16012KT 11/03 A3015 RMK A01 T01090033  RH  060%=      5-min Rain = 0
KHA3 310538Z 16011KT 11/03 A3015 RMK A01 T01090033  RH  060%=      5-min Rain = 0
KHA3 310539Z 16012KT 11/03 A3015 RMK A01 T01090033  RH  060%=      5-min Rain = 0
KHA3 310540Z 16011KT 11/03 A3015 RMK A01 T01080033  RH  060%=      5-min Rain = 0
KHA3 310541Z 16011KT 11/03 A3015 RMK A01 T01070033  RH  060%=      5-min Rain = 0
KHA3 310542Z 16012KT 11/03 A3015 RMK A01 T01060033  RH  061%=      5-min Rain = 0
KHA3 310543Z 16011KT 11/03 A3015 RMK A01 T01060034  RH  061%=      5-min Rain = 0
KHA3 310544Z 16011KT 11/03 A3015 RMK A01 T01060034  RH  061%=      5-min Rain = 0
KHA3 310545Z 16011KT 11/03 A3015 RMK A01 T01050034  RH  061%=      5-min Rain = 0
KHA3 310546Z 16011KT 10/03 A3015 RMK A01 T01040034  RH  062%=      5-min Rain = 0
KHA3 310547Z 16011KT 10/03 A3015 RMK A01 T01030034  RH  062%=      5-min Rain = 0
KHA3 310548Z 16012KT 10/03 A3015 RMK A01 T01030034  RH  062%=      5-min Rain = 0
KHA3 310549Z 16011KT 10/03 A3015 RMK A01 T01020034  RH  063%=      5-min Rain = 0
KHA3 310550Z 16011KT 10/03 A3015 RMK A01 T01020034  RH  063%=      5-min Rain = 0
KHA3 310551Z 16011KT 10/03 A3015 RMK A01 T01020034  RH  063%=      5-min Rain = 0
KHA3 310552Z 16011KT 10/03 A3014 RMK A01 T01010034  RH  063%=      5-min Rain = 0
KHA3 310553Z 16011KT 10/03 A3014 RMK A01 T01010034  RH  063%=      5-min Rain = 0
KHA3 310554Z 16010KT 10/03 A3014 RMK A01 T01000034  RH  063%=      5-min Rain = 0
KHA3 310555Z 16012KT 10/03 A3014 RMK A01 T01000034  RH  063%=      5-min Rain = 0
KHA3 310556Z 16011KT 10/03 A3014 RMK A01 T01000034  RH  063%=      5-min Rain = 0
KHA3 310557Z 16012KT 10/03 A3014 RMK A01 T01000034  RH  064%=      5-min Rain = 0
KHA3 310558Z 16011KT 10/03 A3014 RMK A01 T00990034  RH  064%=      5-min Rain = 0
KHA3 310559Z 16011KT 10/03 A3014 RMK A01 T00990034  RH  064%=      5-min Rain = 0
KHA3 310600Z 16011KT 10/03 A3014 RMK A01 T00990034  RH  064%=      5-min Rain = 0
KHA3 310601Z 16011KT 10/03 A3014 RMK A01 T00990034  RH  064%=      5-min Rain = 0
KHA3 310602Z 16011KT 10/03 A3014 RMK A01 T00980034  RH  064%=      5-min Rain = 0
KHA3 310603Z 17011KT 10/03 A3014 RMK A01 T00980034  RH  064%=      5-min Rain = 0
KHA3 310604Z 16011KT 10/04 A3014 RMK A01 T00980035  RH  065%=      5-min Rain = 0
KHA3 310605Z 16012KT 10/03 A3014 RMK A01 T00980034  RH  065%=      5-min Rain = 0
KHA3 310606Z 16011KT 10/03 A3014 RMK A01 T00980034  RH  064%=      5-min Rain = 0
KHA3 310607Z 17011KT 10/03 A3014 RMK A01 T00980034  RH  064%=      5-min Rain = 0
KHA3 310608Z 17012KT 10/03 A3014 RMK A01 T00980034  RH  064%=      5-min Rain = 0
KHA3 310609Z 17012KT 10/03 A3014 RMK A01 T00980034  RH  065%=      5-min Rain = 0
KHA3 310610Z 17012KT 10/03 A3014 RMK A01 T00970034  RH  065%=      5-min Rain = 0
KHA3 310611Z 17012KT 10/03 A3014 RMK A01 T00970034  RH  065%=      5-min Rain = 0
KHA3 310612Z 17012KT 10/04 A3014 RMK A01 T00980035  RH  065%=      5-min Rain = 0
KHA3 310613Z 17012KT 10/03 A3014 RMK A01 T00970034  RH  065%=      5-min Rain = 0
KHA3 310614Z 17012KT 10/03 A3014 RMK A01 T00970034  RH  065%=      5-min Rain = 0
KHA3 310615Z 17012KT 10/03 A3014 RMK A01 T00970034  RH  065%=      5-min Rain = 0
KHA3 310616Z 17013KT 10/03 A3014 RMK A01 T00970034  RH  065%=      5-min Rain = 0
KHA3 310617Z 17012KT 10/03 A3013 RMK A01 T00970034  RH  065%=      5-min Rain = 0
KHA3 310618Z 17012KT 10/03 A3013 RMK A01 T00970034  RH  065%=      5-min Rain = 0
KHA3 310619Z 17013KT 10/03 A3013 RMK A01 T00970034  RH  065%=      5-min Rain = 0
KHA3 310620Z 17012KT 10/03 A3013 RMK A01 T00970034  RH  065%=      5-min Rain = 0
KHA3 310621Z 17012KT 10/03 A3013 RMK A01 T00960034  RH  065%=      5-min Rain = 0
KHA3 310622Z 17013KT 10/03 A3013 RMK A01 T00960034  RH  065%=      5-min Rain = 0
KHA3 310623Z 17012KT 10/03 A3013 RMK A01 T00960034  RH  065%=      5-min Rain = 0
KHA3 310624Z 17012KT 10/03 A3013 RMK A01 T00960034  RH  065%=      5-min Rain = 0
KHA3 310625Z 17012KT 10/03 A3013 RMK A01 T00960033  RH  065%=      5-min Rain = 0
KHA3 310626Z 17013KT 10/03 A3013 RMK A01 T00970033  RH  065%=      5-min Rain = 0
KHA3 310627Z 17012KT 10/03 A3013 RMK A01 T00970033  RH  064%=      5-min Rain = 0
KHA3 310628Z 17013KT 10/03 A3013 RMK A01 T00980033  RH  064%=      5-min Rain = 0
KHA3 310629Z 17012KT 10/03 A3013 RMK A01 T00990033  RH  063%=      5-min Rain = 0
KHA3 310630Z 17012KT 10/03 A3013 RMK A01 T00990033  RH  064%=      5-min Rain = 0
KHA3 310631Z 17012KT 10/03 A3013 RMK A01 T00980033  RH  064%=      5-min Rain = 0
KHA3 310632Z 17012KT 10/03 A3013 RMK A01 T00980033  RH  064%=      5-min Rain = 0
KHA3 310633Z 17012KT 10/03 A3013 RMK A01 T00980033  RH  064%=      5-min Rain = 0
KHA3 310634Z 17012KT 10/03 A3013 RMK A01 T00980032  RH  064%=      5-min Rain = 0
KHA3 310635Z 17012KT 10/03 A3013 RMK A01 T00980032  RH  064%=      5-min Rain = 0
KHA3 310636Z 17012KT 10/03 A3013 RMK A01 T00980032  RH  063%=      5-min Rain = 0
KHA3 310637Z 17012KT 10/03 A3013 RMK A01 T00980032  RH  063%=      5-min Rain = 0
KHA3 310638Z 17013KT 10/03 A3013 RMK A01 T00970032  RH  064%=      5-min Rain = 0
KHA3 310639Z 17013KT 10/03 A3013 RMK A01 T00980032  RH  064%=      5-min Rain = 0
KHA3 310640Z 17012KT 10/03 A3013 RMK A01 T00980032  RH  064%=      5-min Rain = 0
KHA3 310641Z 17012KT 10/03 A3013 RMK A01 T00970032  RH  064%=      5-min Rain = 0
KHA3 310642Z 17012KT 10/03 A3013 RMK A01 T00960032  RH  064%=      5-min Rain = 0
KHA3 310643Z 17013KT 10/03 A3013 RMK A01 T00960032  RH  064%=      5-min Rain = 0
KHA3 310644Z 17013KT 10/03 A3013 RMK A01 T00960032  RH  064%=      5-min Rain = 0
KHA3 310645Z 17013KT 10/03 A3013 RMK A01 T00960031  RH  064%=      5-min Rain = 0
KHA3 310646Z 17013KT 10/03 A3013 RMK A01 T00960031  RH  064%=      5-min Rain = 0
KHA3 310647Z 17013KT 10/03 A3013 RMK A01 T00960032  RH  064%=      5-min Rain = 0
KHA3 310648Z 17013KT 10/03 A3012 RMK A01 T00960032  RH  064%=      5-min Rain = 0
KHA3 310649Z 17012KT 10/03 A3012 RMK A01 T00950032  RH  064%=      5-min Rain = 0
KHA3 310650Z 17013KT 10/03 A3012 RMK A01 T00950032  RH  065%=      5-min Rain = 0
KHA3 310651Z 17013KT 10/03 A3012 RMK A01 T00950032  RH  065%=      5-min Rain = 0
KHA3 310652Z 17013KT 10/03 A3012 RMK A01 T00950032  RH  065%=      5-min Rain = 0
KHA3 310653Z 17013KT 10/03 A3012 RMK A01 T00950032  RH  065%=      5-min Rain = 0
KHA3 310654Z 17013KT 10/03 A3012 RMK A01 T00950031  RH  065%=      5-min Rain = 0
KHA3 310655Z 17013KT 09/03 A3012 RMK A01 T00940031  RH  065%=      5-min Rain = 0
KHA3 310656Z 17013KT 09/03 A3012 RMK A01 T00940031  RH  065%=      5-min Rain = 0
KHA3 310657Z 17012KT 09/03 A3012 RMK A01 T00940031  RH  065%=      5-min Rain = 0
KHA3 310658Z 18012KT 09/03 A3012 RMK A01 T00940031  RH  065%=      5-min Rain = 0
KHA3 310659Z 18013KT 09/03 A3012 RMK A01 T00940031  RH  065%=      5-min Rain = 0
KHA3 310700Z 17012KT 09/03 A3012 RMK A01 T00940031  RH  065%=      5-min Rain = 0
KHA3 310701Z 17013KT 10/03 A3012 RMK A01 T00950031  RH  065%=      5-min Rain = 0
KHA3 310702Z 18011KT 09/03 A3012 RMK A01 T00940031  RH  064%=      5-min Rain = 0
KHA3 310703Z 17013KT 09/03 A3012 RMK A01 T00940031  RH  064%=      5-min Rain = 0
KHA3 310704Z 18011KT 09/03 A3012 RMK A01 T00940030  RH  064%=      5-min Rain = 0
KHA3 310705Z 18011KT 10/03 A3012 RMK A01 T00950030  RH  064%=      5-min Rain = 0
KHA3 310706Z 18011KT 09/03 A3012 RMK A01 T00940030  RH  064%=      5-min Rain = 0
KHA3 310707Z 17012KT 09/03 A3012 RMK A01 T00940031  RH  065%=      5-min Rain = 0
KHA3 310708Z 17011KT 09/03 A3012 RMK A01 T00930031  RH  065%=      5-min Rain = 0
KHA3 310709Z 18011KT 09/03 A3012 RMK A01 T00930031  RH  065%=      5-min Rain = 0
KHA3 310710Z 17011KT 09/03 A3012 RMK A01 T00930030  RH  065%=      5-min Rain = 0
KHA3 310711Z 18011KT 09/03 A3012 RMK A01 T00930030  RH  065%=      5-min Rain = 0
KHA3 310712Z 17011KT 09/03 A3012 RMK A01 T00930030  RH  065%=      5-min Rain = 0
KHA3 310713Z 18011KT 09/03 A3012 RMK A01 T00930031  RH  065%=      5-min Rain = 0
KHA3 310714Z 17012KT 09/03 A3012 RMK A01 T00930030  RH  065%=      5-min Rain = 0
KHA3 310715Z 17012KT 09/03 A3012 RMK A01 T00930030  RH  065%=      5-min Rain = 0
KHA3 310716Z 17012KT 09/03 A3012 RMK A01 T00930031  RH  065%=      5-min Rain = 0
KHA3 310717Z 18012KT 09/03 A3012 RMK A01 T00930030  RH  065%=      5-min Rain = 0
KHA3 310718Z 18011KT 09/03 A3012 RMK A01 T00930030  RH  065%=      5-min Rain = 0
KHA3 310719Z 18011KT 09/03 A3012 RMK A01 T00920031  RH  065%=      5-min Rain = 0
KHA3 310720Z 17011KT 09/03 A3012 RMK A01 T00920030  RH  065%=      5-min Rain = 0
KHA3 310721Z 18011KT 09/03 A3012 RMK A01 T00920030  RH  065%=      5-min Rain = 0
KHA3 310722Z 18011KT 09/03 A3012 RMK A01 T00920030  RH  065%=      5-min Rain = 0
KHA3 310723Z 18011KT 09/03 A3012 RMK A01 T00930030  RH  065%=      5-min Rain = 0
KHA3 310724Z 18011KT 09/03 A3012 RMK A01 T00920030  RH  065%=      5-min Rain = 0
KHA3 310725Z 18011KT 09/03 A3012 RMK A01 T00930030  RH  065%=      5-min Rain = 0
KHA3 310726Z 18011KT 09/03 A3012 RMK A01 T00930030  RH  065%=      5-min Rain = 0
KHA3 310727Z 18010KT 09/03 A3012 RMK A01 T00930029  RH  064%=      5-min Rain = 0
KHA3 310728Z 17011KT 09/03 A3012 RMK A01 T00940030  RH  064%=      5-min Rain = 0
KHA3 310729Z 18012KT 09/03 A3012 RMK A01 T00930029  RH  064%=      5-min Rain = 0
KHA3 310730Z 17011KT 09/03 A3012 RMK A01 T00930029  RH  064%=      5-min Rain = 0
KHA3 310731Z 18011KT 09/03 A3012 RMK A01 T00930029  RH  064%=      5-min Rain = 0
KHA3 310732Z 17011KT 09/03 A3012 RMK A01 T00930029  RH  064%=      5-min Rain = 0
KHA3 310733Z 17011KT 09/03 A3012 RMK A01 T00920029  RH  065%=      5-min Rain = 0
KHA3 310734Z 17011KT 09/03 A3012 RMK A01 T00920029  RH  065%=      5-min Rain = 0
KHA3 310735Z 18011KT 09/03 A3012 RMK A01 T00910029  RH  065%=      5-min Rain = 0
KHA3 310736Z 18011KT 09/03 A3012 RMK A01 T00910029  RH  065%=      5-min Rain = 0
KHA3 310737Z 18011KT 09/03 A3012 RMK A01 T00910029  RH  065%=      5-min Rain = 0
KHA3 310738Z 18011KT 09/03 A3012 RMK A01 T00920029  RH  065%=      5-min Rain = 0
KHA3 310739Z 18012KT 09/03 A3012 RMK A01 T00920029  RH  065%=      5-min Rain = 0
KHA3 310740Z 18012KT 09/03 A3012 RMK A01 T00930029  RH  064%=      5-min Rain = 0
KHA3 310741Z 18011KT 09/03 A3012 RMK A01 T00930029  RH  064%=      5-min Rain = 0
KHA3 310742Z 18012KT 09/03 A3012 RMK A01 T00930029  RH  064%=      5-min Rain = 0
KHA3 310743Z 18012KT 09/03 A3012 RMK A01 T00930029  RH  064%=      5-min Rain = 0
KHA3 310744Z 18012KT 09/03 A3012 RMK A01 T00930029  RH  064%=      5-min Rain = 0
KHA3 310745Z 18013KT 09/03 A3012 RMK A01 T00930028  RH  064%=      5-min Rain = 0
KHA3 310746Z 18012KT 09/03 A3012 RMK A01 T00930028  RH  064%=      5-min Rain = 0
KHA3 310747Z 18013KT 09/03 A3012 RMK A01 T00930028  RH  064%=      5-min Rain = 0
KHA3 310748Z 18013KT 09/03 A3012 RMK A01 T00930029  RH  064%=      5-min Rain = 0
KHA3 310749Z 18013KT 09/03 A3012 RMK A01 T00940029  RH  064%=      5-min Rain = 0
KHA3 310750Z 18013KT 09/03 A3012 RMK A01 T00930029  RH  064%=      5-min Rain = 0
KHA3 310751Z 18013KT 09/03 A3012 RMK A01 T00920029  RH  065%=      5-min Rain = 0
KHA3 310752Z 18013KT 09/03 A3012 RMK A01 T00920028  RH  065%=      5-min Rain = 0
KHA3 310753Z 18014KT 09/03 A3012 RMK A01 T00920028  RH  064%=      5-min Rain = 0
KHA3 310754Z 18013KT 09/03 A3012 RMK A01 T00930028  RH  064%=      5-min Rain = 0
KHA3 310755Z 18013KT 09/03 A3012 RMK A01 T00930028  RH  064%=      5-min Rain = 0
KHA3 310756Z 18012KT 09/03 A3012 RMK A01 T00920029  RH  065%=      5-min Rain = 0
KHA3 310757Z 18012KT 09/03 A3012 RMK A01 T00910028  RH  065%=      5-min Rain = 0
KHA3 310758Z 18012KT 09/03 A3012 RMK A01 T00910028  RH  065%=      5-min Rain = 0
KHA3 310759Z 18012KT 09/03 A3012 RMK A01 T00900028  RH  065%=      5-min Rain = 0
KHA3 310800Z 18011KT 09/03 A3012 RMK A01 T00900029  RH  065%=      5-min Rain = 0
KHA3 310801Z 18011KT 09/03 A3012 RMK A01 T00890029  RH  066%=      5-min Rain = 0
KHA3 310802Z 18012KT 09/03 A3012 RMK A01 T00890028  RH  066%=      5-min Rain = 0
KHA3 310803Z 18012KT 09/03 A3012 RMK A01 T00880028  RH  066%=      5-min Rain = 0
KHA3 310804Z 18011KT 09/03 A3012 RMK A01 T00880028  RH  066%=      5-min Rain = 0
KHA3 310805Z 18011KT 09/03 A3012 RMK A01 T00880029  RH  066%=      5-min Rain = 0
KHA3 310806Z 18011KT 09/03 A3012 RMK A01 T00870029  RH  067%=      5-min Rain = 0
KHA3 310807Z 18011KT 09/03 A3012 RMK A01 T00860028  RH  067%=      5-min Rain = 0
KHA3 310808Z 18012KT 09/03 A3012 RMK A01 T00860028  RH  067%=      5-min Rain = 0
KHA3 310809Z 18011KT 09/03 A3012 RMK A01 T00870028  RH  067%=      5-min Rain = 0
KHA3 310810Z 18011KT 09/03 A3012 RMK A01 T00870029  RH  067%=      5-min Rain = 0
KHA3 310811Z 18011KT 09/03 A3012 RMK A01 T00860028  RH  067%=      5-min Rain = 0
KHA3 310812Z 18011KT 09/03 A3012 RMK A01 T00860029  RH  067%=      5-min Rain = 0
KHA3 310813Z 18011KT 09/03 A3012 RMK A01 T00860028  RH  067%=      5-min Rain = 0
KHA3 310814Z 18011KT 09/03 A3012 RMK A01 T00850028  RH  067%=      5-min Rain = 0
KHA3 310815Z 18011KT 09/03 A3012 RMK A01 T00850028  RH  068%=      5-min Rain = 0
KHA3 310816Z 18011KT 09/03 A3012 RMK A01 T00850029  RH  068%=      5-min Rain = 0
KHA3 310817Z 18011KT 08/03 A3012 RMK A01 T00840028  RH  068%=      5-min Rain = 0
KHA3 310818Z 18012KT 08/03 A3012 RMK A01 T00840028  RH  068%=      5-min Rain = 0
KHA3 310819Z 18011KT 08/03 A3012 RMK A01 T00830028  RH  068%=      5-min Rain = 0
KHA3 310820Z 18011KT 08/03 A3012 RMK A01 T00830028  RH  068%=      5-min Rain = 0
KHA3 310821Z 18011KT 08/03 A3012 RMK A01 T00830028  RH  068%=      5-min Rain = 0
KHA3 310822Z 18011KT 08/03 A3011 RMK A01 T00830029  RH  069%=      5-min Rain = 0
KHA3 310823Z 18011KT 08/03 A3012 RMK A01 T00830029  RH  069%=      5-min Rain = 0
KHA3 310824Z 18011KT 08/03 A3012 RMK A01 T00830029  RH  069%=      5-min Rain = 0
KHA3 310825Z 18010KT 08/03 A3012 RMK A01 T00830029  RH  069%=      5-min Rain = 0
KHA3 310826Z 18010KT 08/03 A3012 RMK A01 T00820029  RH  069%=      5-min Rain = 0
KHA3 310827Z 18009KT 08/03 A3012 RMK A01 T00820028  RH  069%=      5-min Rain = 0
KHA3 310828Z 18010KT 08/03 A3012 RMK A01 T00830029  RH  069%=      5-min Rain = 0
KHA3 310829Z 18010KT 08/03 A3012 RMK A01 T00820028  RH  068%=      5-min Rain = 0
KHA3 310830Z 18009KT 08/03 A3012 RMK A01 T00830029  RH  069%=      5-min Rain = 0
KHA3 310831Z 18010KT 08/03 A3012 RMK A01 T00830029  RH  069%=      5-min Rain = 0
KHA3 310832Z 18009KT 08/03 A3012 RMK A01 T00820028  RH  069%=      5-min Rain = 0
KHA3 310833Z 18009KT 08/03 A3012 RMK A01 T00820028  RH  069%=      5-min Rain = 0
KHA3 310834Z 18009KT 08/03 A3012 RMK A01 T00820028  RH  069%=      5-min Rain = 0
KHA3 310835Z 18009KT 08/03 A3012 RMK A01 T00820029  RH  069%=      5-min Rain = 0
KHA3 310836Z 18009KT 08/03 A3012 RMK A01 T00810028  RH  069%=      5-min Rain = 0
KHA3 310837Z 18009KT 08/03 A3012 RMK A01 T00810029  RH  069%=      5-min Rain = 0
KHA3 310838Z 18009KT 08/03 A3012 RMK A01 T00810028  RH  069%=      5-min Rain = 0
KHA3 310839Z 18009KT 08/03 A3012 RMK A01 T00810028  RH  070%=      5-min Rain = 0
KHA3 310840Z 18009KT 08/03 A3012 RMK A01 T00800029  RH  070%=      5-min Rain = 0
KHA3 310841Z 18009KT 08/03 A3012 RMK A01 T00800028  RH  070%=      5-min Rain = 0
KHA3 310842Z 18010KT 08/03 A3012 RMK A01 T00800028  RH  070%=      5-min Rain = 0
KHA3 310843Z 18009KT 08/03 A3012 RMK A01 T00800028  RH  070%=      5-min Rain = 0
KHA3 310844Z 18010KT 08/03 A3012 RMK A01 T00810028  RH  069%=      5-min Rain = 0
KHA3 310845Z 18010KT 08/03 A3012 RMK A01 T00810028  RH  069%=      5-min Rain = 0
KHA3 310846Z 19009KT 08/03 A3012 RMK A01 T00810028  RH  069%=      5-min Rain = 0
KHA3 310847Z 19010KT 08/03 A3012 RMK A01 T00810028  RH  069%=      5-min Rain = 0
KHA3 310848Z 19010KT 08/03 A3012 RMK A01 T00820027  RH  069%=      5-min Rain = 0
KHA3 310849Z 18010KT 08/03 A3012 RMK A01 T00820028  RH  068%=      5-min Rain = 0
KHA3 310850Z 18010KT 08/03 A3012 RMK A01 T00820028  RH  068%=      5-min Rain = 0
KHA3 310851Z 18010KT 08/03 A3012 RMK A01 T00820028  RH  069%=      5-min Rain = 0
KHA3 310852Z 18011KT 08/03 A3011 RMK A01 T00820028  RH  069%=      5-min Rain = 0
KHA3 310853Z 18009KT 08/03 A3012 RMK A01 T00820028  RH  069%=      5-min Rain = 0
KHA3 310854Z 18009KT 08/03 A3011 RMK A01 T00820028  RH  069%=      5-min Rain = 0
KHA3 310855Z 18009KT 08/03 A3011 RMK A01 T00830028  RH  068%=      5-min Rain = 0
KHA3 310856Z 18009KT 08/03 A3012 RMK A01 T00820028  RH  069%=      5-min Rain = 0
KHA3 310857Z 18009KT 08/03 A3012 RMK A01 T00820028  RH  069%=      5-min Rain = 0
KHA3 310858Z 18008KT 08/03 A3012 RMK A01 T00820028  RH  069%=      5-min Rain = 0
KHA3 310859Z 18008KT 08/03 A3012 RMK A01 T00820028  RH  069%=      5-min Rain = 0
KHA3 310900Z 18007KT 08/03 A3012 RMK A01 T00820028  RH  069%=      5-min Rain = 0
KHA3 310901Z 19006KT 08/03 A3012 RMK A01 T00820028  RH  069%=      5-min Rain = 0
KHA3 310902Z 19007KT 08/03 A3012 RMK A01 T00820028  RH  069%=      5-min Rain = 0
KHA3 310903Z 19007KT 08/03 A3012 RMK A01 T00810028  RH  069%=      5-min Rain = 0
KHA3 310904Z 19006KT 08/03 A3012 RMK A01 T00810028  RH  069%=      5-min Rain = 0
KHA3 310905Z 19006KT 08/03 A3012 RMK A01 T00810029  RH  070%=      5-min Rain = 0
KHA3 310906Z 19007KT 08/03 A3012 RMK A01 T00810028  RH  070%=      5-min Rain = 0
KHA3 310907Z 20007KT 08/03 A3012 RMK A01 T00810028  RH  070%=      5-min Rain = 0
KHA3 310908Z 20007KT 08/03 A3012 RMK A01 T00800029  RH  070%=      5-min Rain = 0
KHA3 310909Z 20006KT 08/03 A3011 RMK A01 T00790029  RH  070%=      5-min Rain = 0
KHA3 310910Z 20006KT 08/03 A3011 RMK A01 T00790029  RH  071%=      5-min Rain = 0
KHA3 310911Z 20006KT 08/03 A3011 RMK A01 T00780029  RH  071%=      5-min Rain = 0
KHA3 310912Z 20006KT 08/03 A3012 RMK A01 T00780029  RH  071%=      5-min Rain = 0
KHA3 310913Z 20006KT 08/03 A3012 RMK A01 T00780029  RH  071%=      5-min Rain = 0
KHA3 310914Z 20006KT 08/03 A3012 RMK A01 T00770029  RH  071%=      5-min Rain = 0
KHA3 310915Z 20006KT 08/03 A3012 RMK A01 T00770029  RH  072%=      5-min Rain = 0
KHA3 310916Z 20006KT 08/03 A3012 RMK A01 T00770030  RH  072%=      5-min Rain = 0
KHA3 310917Z 20006KT 08/03 A3012 RMK A01 T00770030  RH  072%=      5-min Rain = 0
KHA3 310918Z 20007KT 08/03 A3011 RMK A01 T00780030  RH  072%=      5-min Rain = 0
KHA3 310919Z 20007KT 08/03 A3011 RMK A01 T00780030  RH  072%=      5-min Rain = 0
KHA3 310920Z 20007KT 08/03 A3011 RMK A01 T00780030  RH  072%=      5-min Rain = 0
KHA3 310921Z 20007KT 08/03 A3011 RMK A01 T00780030  RH  072%=      5-min Rain = 0
KHA3 310922Z 20006KT 08/03 A3011 RMK A01 T00780030  RH  072%=      5-min Rain = 0
KHA3 310923Z 20007KT 08/03 A3011 RMK A01 T00780030  RH  072%=      5-min Rain = 0
KHA3 310924Z 20008KT 08/03 A3011 RMK A01 T00780030  RH  072%=      5-min Rain = 0
KHA3 310925Z 20007KT 08/03 A3011 RMK A01 T00780030  RH  072%=      5-min Rain = 0
KHA3 310926Z 20007KT 08/03 A3011 RMK A01 T00780030  RH  072%=      5-min Rain = 0
KHA3 310927Z 20006KT 08/03 A3011 RMK A01 T00770030  RH  072%=      5-min Rain = 0
KHA3 310928Z 20007KT 08/03 A3011 RMK A01 T00780030  RH  072%=      5-min Rain = 0
KHA3 310929Z 20007KT 08/03 A3011 RMK A01 T00770030  RH  072%=      5-min Rain = 0
KHA3 310930Z 19007KT 08/03 A3011 RMK A01 T00770030  RH  072%=      5-min Rain = 0
KHA3 310931Z 20007KT 08/03 A3011 RMK A01 T00770030  RH  072%=      5-min Rain = 0
KHA3 310932Z 19006KT 08/03 A3011 RMK A01 T00780030  RH  071%=      5-min Rain = 0
KHA3 310933Z 19006KT 08/03 A3011 RMK A01 T00780030  RH  071%=      5-min Rain = 0
KHA3 310934Z 20005KT 08/03 A3011 RMK A01 T00780030  RH  071%=      5-min Rain = 0
KHA3 310935Z 19006KT 08/03 A3011 RMK A01 T00780030  RH  072%=      5-min Rain = 0
KHA3 310936Z 20007KT 08/03 A3011 RMK A01 T00780030  RH  072%=      5-min Rain = 0
KHA3 310937Z 20005KT 08/03 A3011 RMK A01 T00780030  RH  072%=      5-min Rain = 0
KHA3 310938Z 19005KT 08/03 A3011 RMK A01 T00770030  RH  072%=      5-min Rain = 0
KHA3 310939Z 20005KT 08/03 A3011 RMK A01 T00770029  RH  072%=      5-min Rain = 0
KHA3 310940Z 19005KT 08/03 A3011 RMK A01 T00760029  RH  072%=      5-min Rain = 0
KHA3 310941Z 19005KT 08/03 A3011 RMK A01 T00750029  RH  073%=      5-min Rain = 0
KHA3 310942Z 18006KT 08/03 A3011 RMK A01 T00750029  RH  073%=      5-min Rain = 0
KHA3 310943Z 18005KT 07/03 A3011 RMK A01 T00740029  RH  073%=      5-min Rain = 0
KHA3 310944Z 18005KT 07/03 A3011 RMK A01 T00730029  RH  073%=      5-min Rain = 0
KHA3 310945Z 18005KT 07/03 A3011 RMK A01 T00730029  RH  073%=      5-min Rain = 0
KHA3 310946Z 18006KT 07/03 A3011 RMK A01 T00720028  RH  073%=      5-min Rain = 0
KHA3 310947Z 18005KT 07/03 A3011 RMK A01 T00720028  RH  074%=      5-min Rain = 0
KHA3 310948Z 18006KT 07/03 A3011 RMK A01 T00710028  RH  074%=      5-min Rain = 0
KHA3 310949Z 18006KT 07/03 A3011 RMK A01 T00700028  RH  074%=      5-min Rain = 0
KHA3 310950Z 18006KT 07/03 A3011 RMK A01 T00700029  RH  075%=      5-min Rain = 0
KHA3 310951Z 18007KT 07/03 A3011 RMK A01 T00700029  RH  075%=      5-min Rain = 0
KHA3 310952Z 18007KT 07/03 A3011 RMK A01 T00700029  RH  075%=      5-min Rain = 0
KHA3 310953Z 18007KT 07/03 A3011 RMK A01 T00700029  RH  075%=      5-min Rain = 0
KHA3 310954Z 18008KT 07/03 A3011 RMK A01 T00710029  RH  075%=      5-min Rain = 0
KHA3 310955Z 18008KT 07/03 A3011 RMK A01 T00720030  RH  075%=      5-min Rain = 0
KHA3 310956Z 18008KT 07/03 A3011 RMK A01 T00720029  RH  074%=      5-min Rain = 0
KHA3 310957Z 18008KT 07/03 A3011 RMK A01 T00720030  RH  074%=      5-min Rain = 0
KHA3 310958Z 18008KT 07/03 A3011 RMK A01 T00720029  RH  074%=      5-min Rain = 0
KHA3 310959Z 18008KT 07/03 A3011 RMK A01 T00730030  RH  074%=      5-min Rain = 0
KHA3 311000Z 18008KT 07/03 A301 RMK A01 T00720030  RH  074%=      5-min Rain = 0
KHA3 311001Z 18008KT 07/03 A301 RMK A01 T00720029  RH  074%=      5-min Rain = 0
KHA3 311002Z 18008KT 07/03 A301 RMK A01 T00720029  RH  074%=      5-min Rain = 0
KHA3 311003Z 18008KT 07/03 A301 RMK A01 T00720029  RH  074%=      5-min Rain = 0
KHA3 311004Z 18008KT 07/03 A301 RMK A01 T00720029  RH  074%=      5-min Rain = 0
KHA3 311005Z 18008KT 07/03 A301 RMK A01 T00720030  RH  075%=      5-min Rain = 0
KHA3 311006Z 18009KT 07/03 A301 RMK A01 T00720030  RH  075%=      5-min Rain = 0
KHA3 311007Z 18009KT 07/03 A301 RMK A01 T00720030  RH  075%=      5-min Rain = 0
KHA3 311008Z 18010KT 07/03 A301 RMK A01 T00720030  RH  075%=      5-min Rain = 0
KHA3 311009Z 18009KT 07/03 A301 RMK A01 T00720030  RH  075%=      5-min Rain = 0
KHA3 311010Z 18010KT 07/03 A301 RMK A01 T00720030  RH  075%=      5-min Rain = 0
KHA3 311011Z 18010KT 07/03 A301 RMK A01 T00720030  RH  075%=      5-min Rain = 0
KHA3 311012Z 18010KT 07/03 A301 RMK A01 T00720030  RH  075%=      5-min Rain = 0
KHA3 311013Z 18010KT 07/03 A301 RMK A01 T00730030  RH  074%=      5-min Rain = 0
KHA3 311014Z 18010KT 07/03 A301 RMK A01 T00730030  RH  074%=      5-min Rain = 0
KHA3 311015Z 18010KT 07/03 A301 RMK A01 T00720030  RH  074%=      5-min Rain = 0
KHA3 311016Z 18010KT 07/03 A301 RMK A01 T00720030  RH  074%=      5-min Rain = 0
KHA3 311017Z 18011KT 07/03 A301 RMK A01 T00720029  RH  074%=      5-min Rain = 0
KHA3 311018Z 18011KT 07/03 A301 RMK A01 T00730030  RH  074%=      5-min Rain = 0
KHA3 311019Z 18010KT 07/03 A301 RMK A01 T00740030  RH  073%=      5-min Rain = 0
KHA3 311020Z 18010KT 07/03 A301 RMK A01 T00740029  RH  073%=      5-min Rain = 0
KHA3 311021Z 18010KT 07/03 A301 RMK A01 T00740030  RH  074%=      5-min Rain = 0
KHA3 311022Z 18011KT 07/03 A301 RMK A01 T00740030  RH  074%=      5-min Rain = 0
KHA3 311023Z 18011KT 07/03 A301 RMK A01 T00740030  RH  074%=      5-min Rain = 0
KHA3 311024Z 18011KT 07/03 A301 RMK A01 T00730030  RH  074%=      5-min Rain = 0
KHA3 311025Z 18011KT 07/03 A301 RMK A01 T00740030  RH  074%=      5-min Rain = 0
KHA3 311026Z 18011KT 07/03 A301 RMK A01 T00740030  RH  073%=      5-min Rain = 0
KHA3 311027Z 18010KT 07/03 A301 RMK A01 T00740030  RH  073%=      5-min Rain = 0
KHA3 311028Z 18011KT 08/03 A301 RMK A01 T00750030  RH  073%=      5-min Rain = 0
KHA3 311029Z 18011KT 08/03 A301 RMK A01 T00750030  RH  073%=      5-min Rain = 0
KHA3 311030Z 19011KT 07/03 A301 RMK A01 T00740030  RH  073%=      5-min Rain = 0
KHA3 311031Z 18011KT 08/03 A301 RMK A01 T00750030  RH  073%=      5-min Rain = 0
KHA3 311032Z 18011KT 08/03 A301 RMK A01 T00750030  RH  073%=      5-min Rain = 0
KHA3 311033Z 18012KT 08/03 A301 RMK A01 T00750030  RH  073%=      5-min Rain = 0
KHA3 311034Z 18011KT 08/03 A301 RMK A01 T00750030  RH  073%=      5-min Rain = 0
KHA3 311035Z 18011KT 08/03 A301 RMK A01 T00750030  RH  073%=      5-min Rain = 0
KHA3 311036Z 18012KT 08/03 A301 RMK A01 T00750030  RH  073%=      5-min Rain = 0
KHA3 311037Z 18011KT 08/03 A301 RMK A01 T00760030  RH  073%=      5-min Rain = 0
KHA3 311038Z 18012KT 08/03 A301 RMK A01 T00750030  RH  073%=      5-min Rain = 0
KHA3 311039Z 18011KT 08/03 A301 RMK A01 T00750030  RH  073%=      5-min Rain = 0
KHA3 311040Z 18012KT 07/03 A301 RMK A01 T00740030  RH  073%=      5-min Rain = 0
KHA3 311041Z 18012KT 07/03 A301 RMK A01 T00740030  RH  073%=      5-min Rain = 0
KHA3 311042Z 18011KT 07/03 A301 RMK A01 T00740029  RH  073%=      5-min Rain = 0
KHA3 311043Z 18013KT 08/03 A301 RMK A01 T00750030  RH  073%=      5-min Rain = 0
KHA3 311044Z 18011KT 08/03 A301 RMK A01 T00750029  RH  072%=      5-min Rain = 0
KHA3 311045Z 18012KT 08/03 A301 RMK A01 T00760029  RH  072%=      5-min Rain = 0
KHA3 311046Z 18012KT 08/03 A301 RMK A01 T00760029  RH  072%=      5-min Rain = 0
KHA3 311047Z 18012KT 08/03 A301 RMK A01 T00760029  RH  072%=      5-min Rain = 0
KHA3 311048Z 18011KT 08/03 A301 RMK A01 T00760029  RH  072%=      5-min Rain = 0
KHA3 311049Z 18012KT 08/03 A301 RMK A01 T00760029  RH  072%=      5-min Rain = 0
KHA3 311050Z 18011KT 08/03 A301 RMK A01 T00760028  RH  072%=      5-min Rain = 0
KHA3 311051Z 18011KT 08/03 A301 RMK A01 T00760029  RH  072%=      5-min Rain = 0
KHA3 311052Z 18011KT 08/03 A301 RMK A01 T00760029  RH  072%=      5-min Rain = 0
KHA3 311053Z 18010KT 08/03 A301 RMK A01 T00760028  RH  072%=      5-min Rain = 0
KHA3 311054Z 18010KT 08/03 A301 RMK A01 T00760028  RH  072%=      5-min Rain = 0
KHA3 311055Z 18010KT 08/03 A301 RMK A01 T00760029  RH  072%=      5-min Rain = 0
KHA3 311056Z 19010KT 08/03 A301 RMK A01 T00760028  RH  072%=      5-min Rain = 0
KHA3 311057Z 19010KT 08/03 A301 RMK A01 T00760029  RH  072%=      5-min Rain = 0
KHA3 311058Z 18011KT 08/03 A301 RMK A01 T00760028  RH  072%=      5-min Rain = 0
KHA3 311059Z 19011KT 08/03 A301 RMK A01 T00770028  RH  071%=      5-min Rain = 0
KHA3 311100Z 19011KT 08/03 A301 RMK A01 T00770029  RH  071%=      5-min Rain = 0
KHA3 311101Z 19011KT 08/03 A301 RMK A01 T00770028  RH  071%=      5-min Rain = 0
KHA3 311102Z 19011KT 08/03 A301 RMK A01 T00770028  RH  071%=      5-min Rain = 0
KHA3 311103Z 19011KT 08/03 A301 RMK A01 T00770028  RH  071%=      5-min Rain = 0
KHA3 311104Z 19011KT 08/03 A301 RMK A01 T00780028  RH  071%=      5-min Rain = 0
KHA3 311105Z 19011KT 08/03 A301 RMK A01 T00780029  RH  071%=      5-min Rain = 0
KHA3 311106Z 19011KT 08/03 A301 RMK A01 T00770029  RH  071%=      5-min Rain = 0
KHA3 311107Z 19011KT 08/03 A301 RMK A01 T00760028  RH  072%=      5-min Rain = 0
KHA3 311108Z 19012KT 08/03 A301 RMK A01 T00760028  RH  071%=      5-min Rain = 0
KHA3 311109Z 19011KT 08/03 A301 RMK A01 T00770028  RH  071%=      5-min Rain = 0
KHA3 311110Z 19011KT 08/03 A301 RMK A01 T00770028  RH  071%=      5-min Rain = 0
KHA3 311111Z 19011KT 08/03 A301 RMK A01 T00770028  RH  071%=      5-min Rain = 0
KHA3 311112Z 19010KT 08/03 A301 RMK A01 T00770028  RH  071%=      5-min Rain = 0
KHA3 311113Z 18010KT 08/03 A3011 RMK A01 T00770028  RH  071%=      5-min Rain = 0
KHA3 311114Z 19010KT 08/03 A3011 RMK A01 T00770028  RH  071%=      5-min Rain = 0
KHA3 311115Z 19010KT 08/03 A3011 RMK A01 T00760028  RH  071%=      5-min Rain = 0
KHA3 311116Z 19010KT 08/03 A3011 RMK A01 T00760028  RH  071%=      5-min Rain = 0
KHA3 311117Z 19010KT 08/03 A3011 RMK A01 T00760028  RH  072%=      5-min Rain = 0
KHA3 311118Z 18010KT 08/03 A3011 RMK A01 T00760028  RH  072%=      5-min Rain = 0
KHA3 311119Z 18009KT 08/03 A3011 RMK A01 T00750028  RH  072%=      5-min Rain = 0
KHA3 311120Z 19010KT 08/03 A3011 RMK A01 T00750028  RH  072%=      5-min Rain = 0
KHA3 311121Z 19009KT 07/03 A3011 RMK A01 T00740028  RH  072%=      5-min Rain = 0
KHA3 311122Z 18009KT 07/03 A3011 RMK A01 T00740028  RH  073%=      5-min Rain = 0
KHA3 311123Z 18010KT 07/03 A3011 RMK A01 T00740028  RH  073%=      5-min Rain = 0
KHA3 311124Z 18010KT 07/03 A3011 RMK A01 T00740028  RH  073%=      5-min Rain = 0
KHA3 311125Z 18009KT 07/03 A3011 RMK A01 T00740028  RH  073%=      5-min Rain = 0
KHA3 311126Z 18010KT 07/03 A3011 RMK A01 T00730028  RH  073%=      5-min Rain = 0
KHA3 311127Z 18010KT 07/03 A3011 RMK A01 T00720028  RH  074%=      5-min Rain = 0
KHA3 311128Z 18010KT 07/03 A3011 RMK A01 T00720028  RH  074%=      5-min Rain = 0
KHA3 311129Z 18010KT 07/03 A3011 RMK A01 T00720028  RH  073%=      5-min Rain = 0
KHA3 311130Z 18010KT 07/03 A3011 RMK A01 T00720028  RH  073%=      5-min Rain = 0
KHA3 311131Z 18010KT 07/03 A3011 RMK A01 T00720028  RH  074%=      5-min Rain = 0
KHA3 311132Z 18010KT 07/03 A3011 RMK A01 T00720027  RH  073%=      5-min Rain = 0
KHA3 311133Z 18008KT 07/03 A3011 RMK A01 T00720027  RH  073%=      5-min Rain = 0
KHA3 311134Z 17008KT 07/03 A3011 RMK A01 T00720027  RH  073%=      5-min Rain = 0
KHA3 311135Z 18007KT 07/03 A3011 RMK A01 T00710027  RH  074%=      5-min Rain = 0
KHA3 311136Z 18008KT 07/03 A3011 RMK A01 T00700027  RH  074%=      5-min Rain = 0
KHA3 311137Z 18008KT 07/03 A3011 RMK A01 T00710027  RH  074%=      5-min Rain = 0
KHA3 311138Z 18009KT 07/03 A3011 RMK A01 T00710027  RH  074%=      5-min Rain = 0
KHA3 311139Z 18008KT 07/03 A3011 RMK A01 T00710027  RH  073%=      5-min Rain = 0
KHA3 311140Z 18008KT 07/03 A3011 RMK A01 T00710027  RH  073%=      5-min Rain = 0
KHA3 311141Z 17008KT 07/03 A3011 RMK A01 T00710027  RH  073%=      5-min Rain = 0
KHA3 311142Z 18008KT 07/03 A3011 RMK A01 T00710027  RH  074%=      5-min Rain = 0
KHA3 311143Z 18008KT 07/03 A3011 RMK A01 T00700027  RH  074%=      5-min Rain = 0
KHA3 311144Z 18007KT 07/03 A3011 RMK A01 T00700027  RH  074%=      5-min Rain = 0
KHA3 311145Z 18007KT 07/03 A3011 RMK A01 T00700027  RH  074%=      5-min Rain = 0
KHA3 311146Z 18007KT 07/03 A3011 RMK A01 T00700027  RH  074%=      5-min Rain = 0
KHA3 311147Z 18008KT 07/03 A3011 RMK A01 T00700027  RH  074%=      5-min Rain = 0
KHA3 311148Z 18008KT 07/03 A3011 RMK A01 T00690027  RH  074%=      5-min Rain = 0
KHA3 311149Z 18007KT 07/03 A3011 RMK A01 T00690026  RH  074%=      5-min Rain = 0
KHA3 311150Z 18007KT 07/03 A3011 RMK A01 T00690027  RH  074%=      5-min Rain = 0
KHA3 311151Z 18007KT 07/03 A3012 RMK A01 T00690026  RH  074%=      5-min Rain = 0
KHA3 311152Z 18007KT 07/03 A3012 RMK A01 T00690027  RH  075%=      5-min Rain = 0
KHA3 311153Z 18007KT 07/03 A3012 RMK A01 T00680026  RH  075%=      5-min Rain = 0
KHA3 311154Z 19006KT 07/03 A3012 RMK A01 T00670026  RH  075%=      5-min Rain = 0
KHA3 311155Z 19007KT 07/03 A3012 RMK A01 T00660026  RH  076%=      5-min Rain = 0
KHA3 311156Z 19006KT 07/03 A3012 RMK A01 T00660026  RH  076%=      5-min Rain = 0
KHA3 311157Z 19006KT 07/03 A3012 RMK A01 T00660026  RH  076%=      5-min Rain = 0
KHA3 311158Z 19006KT 07/03 A3012 RMK A01 T00660026  RH  076%=      5-min Rain = 0
KHA3 311159Z 19005KT 07/03 A3012 RMK A01 T00660026  RH  076%=      5-min Rain = 0
KHA3 311200Z 19005KT 07/03 A3012 RMK A01 T00650026  RH  076%=      5-min Rain = 0
KHA3 311201Z 18006KT 06/03 A3012 RMK A01 T00640026  RH  076%=      5-min Rain = 0
KHA3 311202Z 18006KT 06/03 A3012 RMK A01 T00640026  RH  076%=      5-min Rain = 0
KHA3 311203Z 18007KT 06/03 A3012 RMK A01 T00640026  RH  076%=      5-min Rain = 0
KHA3 311204Z 18006KT 06/03 A3012 RMK A01 T00640026  RH  077%=      5-min Rain = 0
KHA3 311205Z 18007KT 06/03 A3012 RMK A01 T00640026  RH  077%=      5-min Rain = 0
KHA3 311206Z 18007KT 06/03 A3012 RMK A01 T00630026  RH  077%=      5-min Rain = 0
KHA3 311207Z 18007KT 06/03 A3011 RMK A01 T00630026  RH  077%=      5-min Rain = 0
KHA3 311208Z 18008KT 06/03 A3011 RMK A01 T00630026  RH  077%=      5-min Rain = 0
KHA3 311209Z 17007KT 06/03 A3011 RMK A01 T00630026  RH  077%=      5-min Rain = 0
KHA3 311210Z 17008KT 06/03 A3011 RMK A01 T00620026  RH  078%=      5-min Rain = 0
KHA3 311211Z 17008KT 06/03 A3011 RMK A01 T00610026  RH  078%=      5-min Rain = 0
KHA3 311212Z 17008KT 06/03 A3011 RMK A01 T00610026  RH  078%=      5-min Rain = 0
KHA3 311213Z 17008KT 06/03 A3012 RMK A01 T00610026  RH  078%=      5-min Rain = 0
KHA3 311214Z 17007KT 06/03 A3012 RMK A01 T00610026  RH  078%=      5-min Rain = 0
KHA3 311215Z 17007KT 06/03 A3012 RMK A01 T00600026  RH  079%=      5-min Rain = 0
KHA3 311216Z 17006KT 06/03 A3012 RMK A01 T00600026  RH  079%=      5-min Rain = 0
KHA3 311217Z 17006KT 06/03 A3012 RMK A01 T00590025  RH  079%=      5-min Rain = 0
KHA3 311218Z 17006KT 06/03 A3012 RMK A01 T00600026  RH  079%=      5-min Rain = 0
KHA3 311219Z 17006KT 06/03 A3012 RMK A01 T00590025  RH  079%=      5-min Rain = 0
KHA3 311220Z 17006KT 06/03 A3012 RMK A01 T00590025  RH  079%=      5-min Rain = 0
KHA3 311221Z 17005KT 06/03 A3012 RMK A01 T00600025  RH  079%=      5-min Rain = 0
KHA3 311222Z 17005KT 06/03 A3012 RMK A01 T00590025  RH  079%=      5-min Rain = 0
KHA3 311223Z 17006KT 06/03 A3011 RMK A01 T00600025  RH  078%=      5-min Rain = 0
KHA3 311224Z 17006KT 06/03 A3011 RMK A01 T00600025  RH  078%=      5-min Rain = 0
KHA3 311225Z 16006KT 06/03 A3011 RMK A01 T00600025  RH  078%=      5-min Rain = 0
KHA3 311226Z 16007KT 06/03 A3011 RMK A01 T00590025  RH  079%=      5-min Rain = 0
KHA3 311227Z 17007KT 06/03 A3011 RMK A01 T00590025  RH  079%=      5-min Rain = 0
KHA3 311228Z 17006KT 06/03 A3011 RMK A01 T00590025  RH  079%=      5-min Rain = 0
KHA3 311229Z 16006KT 06/03 A3011 RMK A01 T00590025  RH  079%=      5-min Rain = 0
KHA3 311230Z 17007KT 06/03 A3011 RMK A01 T00590025  RH  079%=      5-min Rain = 0
KHA3 311231Z 16006KT 06/03 A3011 RMK A01 T00590025  RH  079%=      5-min Rain = 0
KHA3 311232Z 17006KT 06/03 A3011 RMK A01 T00590025  RH  079%=      5-min Rain = 0
KHA3 311233Z 17007KT 06/03 A3011 RMK A01 T00590025  RH  079%=      5-min Rain = 0
KHA3 311234Z 17007KT 06/03 A3011 RMK A01 T00590025  RH  079%=      5-min Rain = 0
KHA3 311235Z 17007KT 06/03 A3011 RMK A01 T00580025  RH  079%=      5-min Rain = 0
KHA3 311236Z 17007KT 06/03 A3011 RMK A01 T00580025  RH  080%=      5-min Rain = 0
KHA3 311237Z 17007KT 06/03 A3011 RMK A01 T00580026  RH  080%=      5-min Rain = 0
KHA3 311238Z 17008KT 06/03 A3011 RMK A01 T00570026  RH  080%=      5-min Rain = 0
KHA3 311239Z 17008KT 06/03 A3011 RMK A01 T00580025  RH  080%=      5-min Rain = 0
KHA3 311240Z 17009KT 06/03 A3011 RMK A01 T00570025  RH  080%=      5-min Rain = 0
KHA3 311241Z 17008KT 06/03 A3011 RMK A01 T00560025  RH  080%=      5-min Rain = 0
KHA3 311242Z 17008KT 06/03 A3011 RMK A01 T00570026  RH  080%=      5-min Rain = 0
KHA3 311243Z 17008KT 06/03 A3011 RMK A01 T00560026  RH  081%=      5-min Rain = 0
KHA3 311244Z 17009KT 06/03 A3011 RMK A01 T00560026  RH  081%=      5-min Rain = 0
KHA3 311245Z 17009KT 06/03 A3011 RMK A01 T00560026  RH  081%=      5-min Rain = 0
KHA3 311246Z 17009KT 06/03 A3011 RMK A01 T00560026  RH  081%=      5-min Rain = 0
KHA3 311247Z 17009KT 06/03 A3011 RMK A01 T00570026  RH  081%=      5-min Rain = 0
KHA3 311248Z 17009KT 06/03 A3011 RMK A01 T00570026  RH  080%=      5-min Rain = 0
KHA3 311249Z 17009KT 06/03 A3011 RMK A01 T00570026  RH  080%=      5-min Rain = 0
KHA3 311250Z 17008KT 06/03 A3011 RMK A01 T00570026  RH  080%=      5-min Rain = 0
KHA3 311251Z 17008KT 06/03 A3011 RMK A01 T00570026  RH  080%=      5-min Rain = 0
KHA3 311252Z 17008KT 06/03 A3011 RMK A01 T00580026  RH  080%=      5-min Rain = 0
KHA3 311253Z 17007KT 06/03 A3011 RMK A01 T00590026  RH  080%=      5-min Rain = 0
KHA3 311254Z 17008KT 06/03 A3011 RMK A01 T00590026  RH  079%=      5-min Rain = 0
KHA3 311255Z 17008KT 06/03 A3011 RMK A01 T00590026  RH  079%=      5-min Rain = 0
KHA3 311256Z 18008KT 06/03 A3011 RMK A01 T00600026  RH  079%=      5-min Rain = 0
KHA3 311257Z 17008KT 06/03 A3011 RMK A01 T00600026  RH  079%=      5-min Rain = 0
KHA3 311258Z 18008KT 06/03 A3011 RMK A01 T00600026  RH  079%=      5-min Rain = 0
KHA3 311259Z 17008KT 06/03 A3011 RMK A01 T00600026  RH  079%=      5-min Rain = 0
KHA3 311300Z 18008KT 06/03 A3011 RMK A01 T00600026  RH  079%=      5-min Rain = 0
KHA3 311301Z 17008KT 06/03 A3011 RMK A01 T00590026  RH  079%=      5-min Rain = 0
KHA3 311302Z 18008KT 06/03 A3011 RMK A01 T00590026  RH  079%=      5-min Rain = 0
KHA3 311303Z 18009KT 06/03 A3011 RMK A01 T00590026  RH  079%=      5-min Rain = 0
KHA3 311304Z 18009KT 06/03 A3011 RMK A01 T00590026  RH  079%=      5-min Rain = 0
KHA3 311305Z 17009KT 06/03 A3011 RMK A01 T00590027  RH  080%=      5-min Rain = 0
KHA3 311306Z 17010KT 06/03 A3011 RMK A01 T00580026  RH  080%=      5-min Rain = 0
KHA3 311307Z 17010KT 06/03 A3011 RMK A01 T00590026  RH  080%=      5-min Rain = 0
KHA3 311308Z 17009KT 06/03 A3011 RMK A01 T00590026  RH  079%=      5-min Rain = 0
KHA3 311309Z 17010KT 06/03 A3011 RMK A01 T00590027  RH  080%=      5-min Rain = 0
KHA3 311310Z 17009KT 06/03 A3011 RMK A01 T00590026  RH  080%=      5-min Rain = 0
KHA3 311311Z 17009KT 06/03 A3011 RMK A01 T00590027  RH  080%=      5-min Rain = 0
KHA3 311312Z 17009KT 06/03 A3011 RMK A01 T00590027  RH  079%=      5-min Rain = 0
KHA3 311313Z 17009KT 06/03 A3011 RMK A01 T00600027  RH  079%=      5-min Rain = 0
KHA3 311314Z 17009KT 06/03 A3011 RMK A01 T00590026  RH  079%=      5-min Rain = 0
KHA3 311315Z 17010KT 06/03 A301 RMK A01 T00600027  RH  079%=      5-min Rain = 0
KHA3 311316Z 17010KT 06/03 A301 RMK A01 T00600027  RH  079%=      5-min Rain = 0
KHA3 311317Z 17010KT 06/03 A301 RMK A01 T00600027  RH  079%=      5-min Rain = 0
KHA3 311318Z 16010KT 06/03 A301 RMK A01 T00610027  RH  079%=      5-min Rain = 0
KHA3 311319Z 16010KT 06/03 A301 RMK A01 T00620027  RH  078%=      5-min Rain = 0
KHA3 311320Z 16010KT 06/03 A301 RMK A01 T00620027  RH  078%=      5-min Rain = 0
KHA3 311321Z 17010KT 06/03 A301 RMK A01 T00630028  RH  078%=      5-min Rain = 0
KHA3 311322Z 17009KT 06/03 A301 RMK A01 T00630028  RH  078%=      5-min Rain = 0
KHA3 311323Z 17010KT 06/03 A301 RMK A01 T00630027  RH  078%=      5-min Rain = 0
KHA3 311324Z 17010KT 06/03 A301 RMK A01 T00640027  RH  078%=      5-min Rain = 0
KHA3 311325Z 17009KT 06/03 A301 RMK A01 T00640028  RH  077%=      5-min Rain = 0
KHA3 311326Z 17009KT 06/03 A301 RMK A01 T00640028  RH  077%=      5-min Rain = 0
KHA3 311327Z 17009KT 07/03 A301 RMK A01 T00650028  RH  077%=      5-min Rain = 0
KHA3 311328Z 17008KT 07/03 A301 RMK A01 T00650028  RH  078%=      5-min Rain = 0
KHA3 311329Z 17009KT 06/03 A301 RMK A01 T00640028  RH  077%=      5-min Rain = 0
KHA3 311330Z 17009KT 07/03 A301 RMK A01 T00650028  RH  077%=      5-min Rain = 0
KHA3 311331Z 17010KT 07/03 A301 RMK A01 T00650028  RH  077%=      5-min Rain = 0
KHA3 311332Z 17010KT 07/03 A301 RMK A01 T00650028  RH  077%=      5-min Rain = 0
KHA3 311333Z 17010KT 07/03 A301 RMK A01 T00650028  RH  077%=      5-min Rain = 0
KHA3 311334Z 17011KT 07/03 A301 RMK A01 T00650028  RH  077%=      5-min Rain = 0
KHA3 311335Z 17011KT 07/03 A301 RMK A01 T00660029  RH  077%=      5-min Rain = 0
KHA3 311336Z 17011KT 07/03 A3011 RMK A01 T00670029  RH  077%=      5-min Rain = 0
KHA3 311337Z 17011KT 07/03 A3011 RMK A01 T00680029  RH  076%=      5-min Rain = 0
KHA3 311338Z 17010KT 07/03 A3011 RMK A01 T00680029  RH  076%=      5-min Rain = 0
KHA3 311339Z 17010KT 07/03 A3011 RMK A01 T00680029  RH  076%=      5-min Rain = 0
KHA3 311340Z 17009KT 07/03 A3011 RMK A01 T00680029  RH  076%=      5-min Rain = 0
KHA3 311341Z 18009KT 07/03 A3011 RMK A01 T00690030  RH  076%=      5-min Rain = 0
KHA3 311342Z 18010KT 07/03 A3011 RMK A01 T00690030  RH  076%=      5-min Rain = 0
KHA3 311343Z 17010KT 07/03 A3011 RMK A01 T00690029  RH  076%=      5-min Rain = 0
KHA3 311344Z 17010KT 07/03 A3011 RMK A01 T00700029  RH  075%=      5-min Rain = 0
KHA3 311345Z 17009KT 07/03 A3011 RMK A01 T00710030  RH  075%=      5-min Rain = 0
KHA3 311346Z 17010KT 07/03 A3011 RMK A01 T00710030  RH  075%=      5-min Rain = 0
KHA3 311347Z 17010KT 07/03 A3011 RMK A01 T00720030  RH  075%=      5-min Rain = 0
KHA3 311348Z 17009KT 07/03 A3011 RMK A01 T00720030  RH  075%=      5-min Rain = 0
KHA3 311349Z 17009KT 07/03 A3011 RMK A01 T00730030  RH  074%=      5-min Rain = 0
KHA3 311350Z 16007KT 07/03 A3011 RMK A01 T00740031  RH  074%=      5-min Rain = 0
KHA3 311351Z 17007KT 08/03 A3011 RMK A01 T00750032  RH  074%=      5-min Rain = 0
KHA3 311352Z 16007KT 08/03 A3011 RMK A01 T00750032  RH  074%=      5-min Rain = 0
KHA3 311353Z 17007KT 08/03 A3011 RMK A01 T00760032  RH  074%=      5-min Rain = 0
KHA3 311354Z 17007KT 08/03 A3011 RMK A01 T00770032  RH  074%=      5-min Rain = 0
KHA3 311355Z 17008KT 08/03 A3011 RMK A01 T00770032  RH  073%=      5-min Rain = 0
KHA3 311356Z 18007KT 08/03 A3011 RMK A01 T00770033  RH  073%=      5-min Rain = 0
KHA3 311357Z 18008KT 08/03 A3011 RMK A01 T00780032  RH  073%=      5-min Rain = 0
KHA3 311358Z 18009KT 08/03 A3011 RMK A01 T00790032  RH  072%=      5-min Rain = 0
KHA3 311359Z 18009KT 08/03 A3011 RMK A01 T00790032  RH  072%=      5-min Rain = 0
KHA3 311400Z 18009KT 08/03 A3011 RMK A01 T00800032  RH  072%=      5-min Rain = 0
KHA3 311401Z 18010KT 08/03 A3011 RMK A01 T00800032  RH  072%=      5-min Rain = 0
KHA3 311402Z 18009KT 08/03 A3011 RMK A01 T00810033  RH  072%=      5-min Rain = 0
KHA3 311403Z 18009KT 08/03 A3011 RMK A01 T00810033  RH  072%=      5-min Rain = 0
KHA3 311404Z 18009KT 08/03 A3011 RMK A01 T00810033  RH  072%=      5-min Rain = 0
KHA3 311405Z 18010KT 08/03 A3011 RMK A01 T00820033  RH  071%=      5-min Rain = 0
KHA3 311406Z 19010KT 08/03 A3011 RMK A01 T00820034  RH  072%=      5-min Rain = 0
KHA3 311407Z 19010KT 08/03 A3011 RMK A01 T00820034  RH  071%=      5-min Rain = 0
KHA3 311408Z 19009KT 08/03 A3011 RMK A01 T00830034  RH  071%=      5-min Rain = 0
KHA3 311409Z 19010KT 08/03 A3011 RMK A01 T00840034  RH  071%=      5-min Rain = 0
KHA3 311410Z 19009KT 08/04 A3012 RMK A01 T00840035  RH  071%=      5-min Rain = 0
KHA3 311411Z 19009KT 09/04 A3012 RMK A01 T00850037  RH  072%=      5-min Rain = 0
KHA3 311412Z 19008KT 09/04 A3012 RMK A01 T00860038  RH  072%=      5-min Rain = 0
KHA3 311413Z 19011KT 09/04 A3011 RMK A01 T00870037  RH  071%=      5-min Rain = 0
KHA3 311414Z 19010KT 09/04 A3011 RMK A01 T00880037  RH  071%=      5-min Rain = 0
KHA3 311415Z 18012KT 09/04 A3011 RMK A01 T00890037  RH  070%=      5-min Rain = 0
KHA3 311416Z 18012KT 09/04 A3011 RMK A01 T00890036  RH  070%=      5-min Rain = 0
KHA3 311417Z 18011KT 09/04 A3011 RMK A01 T00890037  RH  070%=      5-min Rain = 0
KHA3 311418Z 18012KT 09/04 A3011 RMK A01 T00890038  RH  070%=      5-min Rain = 0
KHA3 311419Z 18012KT 09/04 A3011 RMK A01 T00900037  RH  070%=      5-min Rain = 0
KHA3 311420Z 18012KT 09/04 A3011 RMK A01 T00890037  RH  070%=      5-min Rain = 0
KHA3 311421Z 18012KT 09/04 A3011 RMK A01 T00890037  RH  070%=      5-min Rain = 0
KHA3 311422Z 18010KT 09/04 A3011 RMK A01 T00890037  RH  070%=      5-min Rain = 0
KHA3 311423Z 18010KT 09/04 A3011 RMK A01 T00900038  RH  070%=      5-min Rain = 0
KHA3 311424Z 18010KT 09/04 A3011 RMK A01 T00910038  RH  070%=      5-min Rain = 0
KHA3 311425Z 18011KT 09/04 A3011 RMK A01 T00910037  RH  069%=      5-min Rain = 0
KHA3 311426Z 18011KT 09/04 A3011 RMK A01 T00910037  RH  069%=      5-min Rain = 0
KHA3 311427Z 18010KT 09/04 A3011 RMK A01 T00920038  RH  069%=      5-min Rain = 0
KHA3 311428Z 18010KT 09/04 A3011 RMK A01 T00920038  RH  069%=      5-min Rain = 0
KHA3 311429Z 18010KT 09/04 A3011 RMK A01 T00930039  RH  069%=      5-min Rain = 0
KHA3 311430Z 18011KT 09/04 A3011 RMK A01 T00920038  RH  069%=      5-min Rain = 0
KHA3 311431Z 19012KT 09/04 A3011 RMK A01 T00920038  RH  069%=      5-min Rain = 0
KHA3 311432Z 18010KT 09/04 A3011 RMK A01 T00910038  RH  069%=      5-min Rain = 0
KHA3 311433Z 18011KT 09/04 A3011 RMK A01 T00920038  RH  069%=      5-min Rain = 0
KHA3 311434Z 19011KT 09/04 A3011 RMK A01 T00920038  RH  069%=      5-min Rain = 0
KHA3 311435Z 18010KT 09/04 A3011 RMK A01 T00930039  RH  069%=      5-min Rain = 0
KHA3 311436Z 18010KT 09/04 A3011 RMK A01 T00930039  RH  069%=      5-min Rain = 0
KHA3 311437Z 18011KT 09/04 A3011 RMK A01 T00930040  RH  069%=      5-min Rain = 0
KHA3 311438Z 18011KT 09/04 A3011 RMK A01 T00940040  RH  069%=      5-min Rain = 0
KHA3 311439Z 18012KT 10/04 A3011 RMK A01 T00950040  RH  069%=      5-min Rain = 0
KHA3 311440Z 18010KT 10/04 A3011 RMK A01 T00950040  RH  069%=      5-min Rain = 0
KHA3 311441Z 18013KT 10/04 A3011 RMK A01 T00960040  RH  068%=      5-min Rain = 0
KHA3 311442Z 18012KT 10/04 A3011 RMK A01 T00970040  RH  068%=      5-min Rain = 0
KHA3 311443Z 18013KT 10/04 A3011 RMK A01 T00980041  RH  067%=      5-min Rain = 0
KHA3 311444Z 18013KT 10/04 A3011 RMK A01 T00990040  RH  067%=      5-min Rain = 0
KHA3 311445Z 18014KT 10/04 A3011 RMK A01 T00990040  RH  067%=      5-min Rain = 0
KHA3 311446Z 18011KT 10/04 A3011 RMK A01 T00990041  RH  067%=      5-min Rain = 0
KHA3 311447Z 18010KT 10/04 A3011 RMK A01 T01000043  RH  067%=      5-min Rain = 0
KHA3 311448Z 18012KT 10/04 A3011 RMK A01 T01030044  RH  067%=      5-min Rain = 0
KHA3 311449Z 18012KT 10/04 A3011 RMK A01 T01040042  RH  066%=      5-min Rain = 0
KHA3 311450Z 18011KT 10/04 A3011 RMK A01 T01040042  RH  066%=      5-min Rain = 0
KHA3 311451Z 19010KT 10/04 A3011 RMK A01 T01040042  RH  066%=      5-min Rain = 0
KHA3 311452Z 18011KT 11/04 A3011 RMK A01 T01050043  RH  065%=      5-min Rain = 0
KHA3 311453Z 18013KT 11/04 A3011 RMK A01 T01060043  RH  065%=      5-min Rain = 0
KHA3 311454Z 19011KT 11/04 A3011 RMK A01 T01060042  RH  064%=      5-min Rain = 0
KHA3 311455Z 19010KT 11/04 A3011 RMK A01 T01070044  RH  065%=      5-min Rain = 0
KHA3 311456Z 19012KT 11/04 A3011 RMK A01 T01080043  RH  064%=      5-min Rain = 0
KHA3 311457Z 19012KT 11/04 A3011 RMK A01 T01080044  RH  064%=      5-min Rain = 0
KHA3 311458Z 19012KT 11/04 A3011 RMK A01 T01090044  RH  064%=      5-min Rain = 0
KHA3 311459Z 19010KT 11/04 A3011 RMK A01 T01100043  RH  063%=      5-min Rain = 0
KHA3 311500Z 19011KT 11/04 A3012 RMK A01 T01100044  RH  064%=      5-min Rain = 0
KHA3 311501Z 19009KT 11/04 A3012 RMK A01 T01110044  RH  063%=      5-min Rain = 0
KHA3 311502Z 19010KT 11/05 A3012 RMK A01 T01130046  RH  064%=      5-min Rain = 0
KHA3 311503Z 19008KT 11/05 A3012 RMK A01 T01140046  RH  063%=      5-min Rain = 0
KHA3 311504Z 20008KT 12/05 A3012 RMK A01 T01150047  RH  063%=      5-min Rain = 0
KHA3 311505Z 21010KT 12/05 A3012 RMK A01 T01170047  RH  062%=      5-min Rain = 0
KHA3 311506Z 21011KT 12/05 A3012 RMK A01 T01170045  RH  061%=      5-min Rain = 0
KHA3 311507Z 20012KT 12/05 A3012 RMK A01 T01180045  RH  061%=      5-min Rain = 0
KHA3 311508Z 20013KT 12/04 A3012 RMK A01 T01190044  RH  060%=      5-min Rain = 0
KHA3 311509Z 20012KT 12/04 A3012 RMK A01 T01200044  RH  059%=      5-min Rain = 0
KHA3 311510Z 20011KT 12/05 A3012 RMK A01 T01210045  RH  060%=      5-min Rain = 0
KHA3 311511Z 20014KT 12/05 A3012 RMK A01 T01220047  RH  060%=      5-min Rain = 0
KHA3 311512Z 20013KT 12/04 A3012 RMK A01 T01230044  RH  059%=      5-min Rain = 0
KHA3 311513Z 20011KT 12/05 A3012 RMK A01 T01230045  RH  059%=      5-min Rain = 0
KHA3 311514Z 20012KT 12/05 A3012 RMK A01 T01230047  RH  060%=      5-min Rain = 0
KHA3 311515Z 20012KT 12/05 A3012 RMK A01 T01230046  RH  059%=      5-min Rain = 0
KHA3 311516Z 20012KT 12/05 A3012 RMK A01 T01240047  RH  059%=      5-min Rain = 0
KHA3 311517Z 20010KT 13/05 A3012 RMK A01 T01260049  RH  059%=      5-min Rain = 0
KHA3 311518Z 21014KT 13/05 A3012 RMK A01 T01280050  RH  059%=      5-min Rain = 0
KHA3 311519Z 20013KT 13/05 A3012 RMK A01 T01290049  RH  058%=      5-min Rain = 0
KHA3 311520Z 20013KT 13/05 A3012 RMK A01 T01290049  RH  058%=      5-min Rain = 0
KHA3 311521Z 20012KT 13/05 A3012 RMK A01 T01300050  RH  058%=      5-min Rain = 0
KHA3 311522Z 20013KT 13/05 A3012 RMK A01 T01310049  RH  057%=      5-min Rain = 0
KHA3 311523Z 21015KT 13/05 A3012 RMK A01 T01320048  RH  057%=      5-min Rain = 0
KHA3 311524Z 20015KT 13/05 A3012 RMK A01 T01310049  RH  057%=      5-min Rain = 0
KHA3 311525Z 19014KT 13/05 A3011 RMK A01 T01330049  RH  057%=      5-min Rain = 0
KHA3 311526Z 20016KT 14/05 A3011 RMK A01 T01350051  RH  057%=      5-min Rain = 0
KHA3 311527Z 19017KT 14/05 A3011 RMK A01 T01350049  RH  056%=      5-min Rain = 0
KHA3 311528Z 20016KT 13/05 A3011 RMK A01 T01340048  RH  056%=      5-min Rain = 0
KHA3 311529Z 20015KT 14/05 A3011 RMK A01 T01350051  RH  057%=      5-min Rain = 0
KHA3 311530Z 20016KT 14/05 A3011 RMK A01 T01350050  RH  056%=      5-min Rain = 0
KHA3 311531Z 20013KT 14/05 A3011 RMK A01 T01350050  RH  056%=      5-min Rain = 0
KHA3 311532Z 20013KT 14/05 A3012 RMK A01 T01360053  RH  057%=      5-min Rain = 0
KHA3 311533Z 20014KT 14/05 A3012 RMK A01 T01380054  RH  057%=      5-min Rain = 0
KHA3 311534Z 21012KT 14/05 A3012 RMK A01 T01380052  RH  056%=      5-min Rain = 0
KHA3 311535Z 20012KT 14/05 A3012 RMK A01 T01380054  RH  057%=      5-min Rain = 0
KHA3 311536Z 21013KT 14/05 A3012 RMK A01 T01400054  RH  056%=      5-min Rain = 0
KHA3 311537Z 21013KT 14/05 A3012 RMK A01 T01390052  RH  056%=      5-min Rain = 0
KHA3 311538Z 21013KT 14/05 A3012 RMK A01 T01390053  RH  056%=      5-min Rain = 0
KHA3 311539Z 21014KT 14/05 A3012 RMK A01 T01390053  RH  056%=      5-min Rain = 0
KHA3 311540Z 20014KT 14/05 A3012 RMK A01 T01390053  RH  056%=      5-min Rain = 0
KHA3 311541Z 21014KT 14/05 A3012 RMK A01 T01390053  RH  056%=      5-min Rain = 0
KHA3 311542Z 21014KT 14/05 A3012 RMK A01 T01400052  RH  055%=      5-min Rain = 0
KHA3 311543Z 21011KT 14/05 A3012 RMK A01 T01380053  RH  057%=      5-min Rain = 0
KHA3 311544Z 21012KT 14/05 A3012 RMK A01 T01380053  RH  057%=      5-min Rain = 0
KHA3 311545Z 21013KT 14/05 A3012 RMK A01 T01380052  RH  056%=      5-min Rain = 0
KHA3 311546Z 21012KT 14/05 A3012 RMK A01 T01380053  RH  056%=      5-min Rain = 0
KHA3 311547Z 21012KT 14/05 A3012 RMK A01 T01380054  RH  057%=      5-min Rain = 0
KHA3 311548Z 22010KT 14/05 A3012 RMK A01 T01390053  RH  056%=      5-min Rain = 0
KHA3 311549Z 21011KT 14/05 A3012 RMK A01 T01390054  RH  056%=      5-min Rain = 0
KHA3 311550Z 21011KT 14/05 A3012 RMK A01 T01390054  RH  056%=      5-min Rain = 0
KHA3 311551Z 22009KT 14/05 A3012 RMK A01 T01390054  RH  057%=      5-min Rain = 0
KHA3 311552Z 22009KT 14/06 A3012 RMK A01 T01390055  RH  057%=      5-min Rain = 0
KHA3 311553Z 21010KT 14/06 A3012 RMK A01 T01420058  RH  057%=      5-min Rain = 0
KHA3 311554Z 22011KT 14/06 A3012 RMK A01 T01440056  RH  056%=      5-min Rain = 0
KHA3 311555Z 22011KT 14/06 A3012 RMK A01 T01440055  RH  055%=      5-min Rain = 0
KHA3 311556Z 22010KT 14/06 A3012 RMK A01 T01430055  RH  055%=      5-min Rain = 0
KHA3 311557Z 22010KT 14/06 A3012 RMK A01 T01430056  RH  056%=      5-min Rain = 0
KHA3 311558Z 21009KT 14/06 A3012 RMK A01 T01440055  RH  055%=      5-min Rain = 0
KHA3 311559Z 21012KT 15/06 A3011 RMK A01 T01460056  RH  055%=      5-min Rain = 0
KHA3 311600Z 21013KT 15/06 A3011 RMK A01 T01480056  RH  054%=      5-min Rain = 0
KHA3 311601Z 21012KT 15/05 A3011 RMK A01 T01490053  RH  053%=      5-min Rain = 0
KHA3 311602Z 22011KT 15/06 A3011 RMK A01 T01500055  RH  053%=      5-min Rain = 0
KHA3 311603Z 21012KT 15/06 A3011 RMK A01 T01510056  RH  053%=      5-min Rain = 0
KHA3 311604Z 21013KT 15/06 A3011 RMK A01 T01530055  RH  052%=      5-min Rain = 0
KHA3 311605Z 22013KT 16/06 A3011 RMK A01 T01550055  RH  051%=      5-min Rain = 0
KHA3 311606Z 21014KT 16/05 A3011 RMK A01 T01560054  RH  051%=      5-min Rain = 0
KHA3 311607Z 22013KT 16/05 A3011 RMK A01 T01560052  RH  050%=      5-min Rain = 0
KHA3 311608Z 21012KT 16/05 A3011 RMK A01 T01570054  RH  050%=      5-min Rain = 0
KHA3 311609Z 22012KT 16/06 A3011 RMK A01 T01580055  RH  050%=      5-min Rain = 0
KHA3 311610Z 22011KT 16/05 A3011 RMK A01 T01580054  RH  050%=      5-min Rain = 0
KHA3 311611Z 22012KT 16/05 A3011 RMK A01 T01590054  RH  050%=      5-min Rain = 0
KHA3 311612Z 21011KT 16/06 A301 RMK A01 T01600055  RH  050%=      5-min Rain = 0
KHA3 311613Z 21013KT 16/06 A301 RMK A01 T01640058  RH  050%=      5-min Rain = 0
KHA3 311614Z 21015KT 17/05 A301 RMK A01 T01650053  RH  047%=      5-min Rain = 0
KHA3 311615Z 21014KT 17/05 A301 RMK A01 T01650053  RH  048%=      5-min Rain = 0
KHA3 311616Z 22013KT 17/05 A301 RMK A01 T01660054  RH  048%=      5-min Rain = 0
KHA3 311617Z 22011KT 17/05 A301 RMK A01 T01650054  RH  048%=      5-min Rain = 0
KHA3 311618Z 21016G21KT 17/06 A301 RMK A01 T01650055  RH  048%=      5-min Rain = 0
KHA3 311619Z 22017KT 17/05 A301 RMK A01 T01650049  RH  046%=      5-min Rain = 0
KHA3 311620Z 21019KT 16/05 A301 RMK A01 T01640051  RH  047%=      5-min Rain = 0
KHA3 311621Z 21018KT 16/05 A3009 RMK A01 T01640049  RH  046%=      5-min Rain = 0
KHA3 311622Z 22016KT 16/05 A3009 RMK A01 T01640051  RH  047%=      5-min Rain = 0
KHA3 311623Z 22017KT 17/05 A3009 RMK A01 T01650051  RH  047%=      5-min Rain = 0
KHA3 311624Z 22018KT 17/05 A3009 RMK A01 T01650051  RH  047%=      5-min Rain = 0
KHA3 311625Z 22016KT 17/05 A3009 RMK A01 T01650051  RH  047%=      5-min Rain = 0
KHA3 311626Z 22016KT 17/05 A3009 RMK A01 T01650051  RH  047%=      5-min Rain = 0
KHA3 311627Z 22015KT 17/05 A3009 RMK A01 T01650052  RH  047%=      5-min Rain = 0
KHA3 311628Z 21018KT 17/05 A3009 RMK A01 T01670053  RH  047%=      5-min Rain = 0
KHA3 311629Z 22017KT 17/05 A3009 RMK A01 T01690053  RH  046%=      5-min Rain = 0
KHA3 311630Z 22016KT 17/05 A3009 RMK A01 T01700053  RH  046%=      5-min Rain = 0
KHA3 311631Z 21019KT 17/06 A3009 RMK A01 T01720056  RH  046%=      5-min Rain = 0
KHA3 311632Z 22018KT 17/06 A3009 RMK A01 T01730055  RH  046%=      5-min Rain = 0
KHA3 311633Z 22017KT 17/05 A3009 RMK A01 T01740054  RH  045%=      5-min Rain = 0
KHA3 311634Z 23015KT 17/05 A3009 RMK A01 T01740054  RH  045%=      5-min Rain = 0
KHA3 311635Z 23018KT 17/06 A3009 RMK A01 T01740056  RH  046%=      5-min Rain = 0
KHA3 311636Z 23017KT 17/05 A3009 RMK A01 T01730054  RH  046%=      5-min Rain = 0
KHA3 311637Z 23016KT 17/05 A3009 RMK A01 T01720053  RH  045%=      5-min Rain = 0
KHA3 311638Z 23015KT 17/06 A3009 RMK A01 T01710055  RH  046%=      5-min Rain = 0
KHA3 311639Z 21012KT 17/06 A3009 RMK A01 T01730056  RH  046%=      5-min Rain = 0
KHA3 311640Z 21016KT 18/06 A3009 RMK A01 T01770058  RH  046%=      5-min Rain = 0
KHA3 311641Z 21015KT 18/06 A3009 RMK A01 T01780056  RH  045%=      5-min Rain = 0
KHA3 311642Z 21016KT 18/06 A3009 RMK A01 T01790055  RH  044%=      5-min Rain = 0
KHA3 311643Z 21016KT 18/06 A3009 RMK A01 T01790058  RH  045%=      5-min Rain = 0
KHA3 311644Z 21018KT 18/06 A3009 RMK A01 T01810058  RH  044%=      5-min Rain = 0
KHA3 311645Z 21017G22KT 18/06 A3008 RMK A01 T01800055  RH  044%=      5-min Rain = 0
KHA3 311646Z 22017KT 18/06 A3008 RMK A01 T01790055  RH  044%=      5-min Rain = 0
KHA3 311647Z 22016KT 18/06 A3008 RMK A01 T01790056  RH  044%=      5-min Rain = 0
KHA3 311648Z 22015KT 18/06 A3008 RMK A01 T01790057  RH  044%=      5-min Rain = 0
KHA3 311649Z 21012KT 18/06 A3008 RMK A01 T01790056  RH  044%=      5-min Rain = 0
KHA3 311650Z 22016KT 18/06 A3008 RMK A01 T01800056  RH  044%=      5-min Rain = 0
KHA3 311651Z 21017KT 18/06 A3008 RMK A01 T01800055  RH  044%=      5-min Rain = 0
KHA3 311652Z 20016KT 18/06 A3008 RMK A01 T01800056  RH  044%=      5-min Rain = 0
KHA3 311653Z 20019KT 18/06 A3008 RMK A01 T01810056  RH  044%=      5-min Rain = 0
KHA3 311654Z 20019KT 18/06 A3008 RMK A01 T01820055  RH  043%=      5-min Rain = 0
KHA3 311655Z 20018KT 18/05 A3008 RMK A01 T01820054  RH  043%=      5-min Rain = 0
KHA3 311656Z 21016KT 18/06 A3008 RMK A01 T01820056  RH  044%=      5-min Rain = 0
KHA3 311657Z 21016KT 18/06 A3008 RMK A01 T01830058  RH  044%=      5-min Rain = 0
KHA3 311658Z 21017KT 18/06 A3008 RMK A01 T01840057  RH  043%=      5-min Rain = 0
KHA3 311659Z 21018KT 19/06 A3008 RMK A01 T01850056  RH  043%=      5-min Rain = 0
KHA3 311700Z 21019KT 18/05 A3008 RMK A01 T01840054  RH  042%=      5-min Rain = 0
KHA3 311701Z 21019KT 18/05 A3008 RMK A01 T01840054  RH  042%=      5-min Rain = 0
KHA3 311702Z 21013KT 18/06 A3008 RMK A01 T01830057  RH  043%=      5-min Rain = 0
KHA3 311703Z 20013KT 19/06 A3008 RMK A01 T01850058  RH  043%=      5-min Rain = 0
KHA3 311704Z 21015KT 19/06 A3008 RMK A01 T01870058  RH  043%=      5-min Rain = 0
KHA3 311705Z 22013KT 19/06 A3008 RMK A01 T01880058  RH  042%=      5-min Rain = 0
KHA3 311706Z 22015KT 19/06 A3008 RMK A01 T01870058  RH  043%=      5-min Rain = 0
KHA3 311707Z 22014G19KT 19/06 A3008 RMK A01 T01870060  RH  043%=      5-min Rain = 0
KHA3 311708Z 22016KT 19/06 A3007 RMK A01 T01870057  RH  043%=      5-min Rain = 0
KHA3 311709Z 22017KT 19/06 A3007 RMK A01 T01850057  RH  043%=      5-min Rain = 0
KHA3 311710Z 20018KT 18/06 A3007 RMK A01 T01840057  RH  043%=      5-min Rain = 0
KHA3 311711Z 19016KT 19/06 A3007 RMK A01 T01850057  RH  043%=      5-min Rain = 0
KHA3 311712Z 20015KT 19/06 A3007 RMK A01 T01870058  RH  043%=      5-min Rain = 0
KHA3 311713Z 21014KT 19/06 A3008 RMK A01 T01870057  RH  042%=      5-min Rain = 0
KHA3 311714Z 22013KT 19/06 A3008 RMK A01 T01870055  RH  042%=      5-min Rain = 0
KHA3 311715Z 21013KT 19/06 A3008 RMK A01 T01850055  RH  042%=      5-min Rain = 0
KHA3 311716Z 20015KT 18/06 A3008 RMK A01 T01840055  RH  043%=      5-min Rain = 0
KHA3 311717Z 23014G20KT 19/06 A3008 RMK A01 T01850056  RH  043%=      5-min Rain = 0
KHA3 311718Z 21015KT 19/06 A3008 RMK A01 T01860058  RH  043%=      5-min Rain = 0
KHA3 311719Z 22013G18KT 19/06 A3008 RMK A01 T01880061  RH  044%=      5-min Rain = 0
KHA3 311720Z 21014KT 19/06 A3008 RMK A01 T01880059  RH  043%=      5-min Rain = 0
KHA3 311721Z 21017KT 19/06 A3008 RMK A01 T01870057  RH  042%=      5-min Rain = 0
KHA3 311722Z 22017KT 19/06 A3008 RMK A01 T01860055  RH  042%=      5-min Rain = 0
KHA3 311723Z 21017KT 19/06 A3008 RMK A01 T01850056  RH  043%=      5-min Rain = 0
KHA3 311724Z 22016KT 19/06 A3008 RMK A01 T01860058  RH  043%=      5-min Rain = 0
KHA3 311725Z 22013KT 19/06 A3008 RMK A01 T01860057  RH  043%=      5-min Rain = 0
KHA3 311726Z 22016KT 19/06 A3008 RMK A01 T01880060  RH  043%=      5-min Rain = 0
KHA3 311727Z 22017KT 19/06 A3008 RMK A01 T01880056  RH  042%=      5-min Rain = 0
KHA3 311728Z 21015KT 19/06 A3008 RMK A01 T01870056  RH  042%=      5-min Rain = 0
KHA3 311729Z 22016KT 19/06 A3008 RMK A01 T01880058  RH  043%=      5-min Rain = 0
KHA3 311730Z 21016KT 19/06 A3008 RMK A01 T01890058  RH  042%=      5-min Rain = 0
KHA3 311731Z 22016G21KT 19/06 A3008 RMK A01 T01900057  RH  042%=      5-min Rain = 0
KHA3 311732Z 21016KT 19/06 A3008 RMK A01 T01900059  RH  042%=      5-min Rain = 0
KHA3 311733Z 22015KT 19/06 A3008 RMK A01 T01910059  RH  042%=      5-min Rain = 0
KHA3 311734Z 23017KT 19/06 A3008 RMK A01 T01910060  RH  042%=      5-min Rain = 0
KHA3 311735Z 22016KT 19/06 A3008 RMK A01 T01890057  RH  042%=      5-min Rain = 0
KHA3 311736Z 22013KT 19/06 A3008 RMK A01 T01880059  RH  043%=      5-min Rain = 0
KHA3 311737Z 21013KT 19/06 A3008 RMK A01 T01910062  RH  043%=      5-min Rain = 0
KHA3 311738Z 21015KT 19/06 A3008 RMK A01 T01940061  RH  042%=      5-min Rain = 0
KHA3 311739Z 21013KT 19/06 A3008 RMK A01 T01940061  RH  042%=      5-min Rain = 0
KHA3 311740Z 21012KT 20/06 A3008 RMK A01 T01950061  RH  041%=      5-min Rain = 0
KHA3 311741Z 24013KT 20/06 A3008 RMK A01 T01970064  RH  042%=      5-min Rain = 0
KHA3 311742Z 24012KT 20/06 A3008 RMK A01 T01960062  RH  042%=      5-min Rain = 0
KHA3 311743Z 23011KT 20/06 A3008 RMK A01 T01950063  RH  042%=      5-min Rain = 0
KHA3 311744Z 22014KT 20/06 A3008 RMK A01 T01960062  RH  042%=      5-min Rain = 0
KHA3 311745Z 22012KT 20/06 A3008 RMK A01 T01970060  RH  041%=      5-min Rain = 0
KHA3 311746Z 22013KT 20/06 A3008 RMK A01 T01970062  RH  041%=      5-min Rain = 0
KHA3 311747Z 22014KT 20/06 A3008 RMK A01 T01990062  RH  041%=      5-min Rain = 0
KHA3 311748Z 22014KT 20/06 A3008 RMK A01 T01990061  RH  040%=      5-min Rain = 0
KHA3 311749Z 23012KT 20/06 A3008 RMK A01 T01990061  RH  040%=      5-min Rain = 0
KHA3 311750Z 23010KT 20/06 A3008 RMK A01 T01990063  RH  041%=      5-min Rain = 0
KHA3 311751Z 23011KT 20/06 A3008 RMK A01 T01980063  RH  041%=      5-min Rain = 0
KHA3 311752Z 23012KT 20/07 A3008 RMK A01 T01990068  RH  043%=      5-min Rain = 0
KHA3 311753Z 23013KT 20/06 A3008 RMK A01 T02000064  RH  041%=      5-min Rain = 0
KHA3 311754Z 24013KT 20/07 A3008 RMK A01 T02000066  RH  042%=      5-min Rain = 0
KHA3 311755Z 22010KT 20/07 A3007 RMK A01 T01990066  RH  042%=      5-min Rain = 0
KHA3 311756Z 21010KT 20/07 A3007 RMK A01 T02000066  RH  042%=      5-min Rain = 0
KHA3 311757Z 22010KT 20/07 A3007 RMK A01 T02030070  RH  042%=      5-min Rain = 0
KHA3 311758Z 22012KT 21/07 A3007 RMK A01 T02050065  RH  040%=      5-min Rain = 0
KHA3 311759Z 22013KT 20/07 A3007 RMK A01 T02030065  RH  041%=      5-min Rain = 0
KHA3 311800Z 21015KT 20/06 A3007 RMK A01 T02030064  RH  040%=      5-min Rain = 0
KHA3 311801Z 21015KT 20/06 A3007 RMK A01 T02040063  RH  040%=      5-min Rain = 0
KHA3 311802Z 21016KT 21/07 A3007 RMK A01 T02050065  RH  040%=      5-min Rain = 0
KHA3 311803Z 21014KT 21/06 A3007 RMK A01 T02060064  RH  040%=      5-min Rain = 0
KHA3 311804Z 22012KT 21/07 A3007 RMK A01 T02060066  RH  040%=      5-min Rain = 0
KHA3 311805Z 23016KT 21/07 A3007 RMK A01 T02060065  RH  040%=      5-min Rain = 0
KHA3 311806Z 22015KT 21/06 A3006 RMK A01 T02050064  RH  040%=      5-min Rain = 0
KHA3 311807Z 22013KT 21/06 A3006 RMK A01 T02050064  RH  040%=      5-min Rain = 0
KHA3 311808Z 21013KT 21/07 A3006 RMK A01 T02060067  RH  041%=      5-min Rain = 0
KHA3 311809Z 22015KT 21/07 A3006 RMK A01 T02080065  RH  039%=      5-min Rain = 0
KHA3 311810Z 22016KT 21/07 A3006 RMK A01 T02090066  RH  039%=      5-min Rain = 0
KHA3 311811Z 21015KT 21/07 A3006 RMK A01 T02100066  RH  039%=      5-min Rain = 0
KHA3 311812Z 22013KT 21/07 A3006 RMK A01 T02110068  RH  039%=      5-min Rain = 0
KHA3 311813Z 22016KT 21/07 A3006 RMK A01 T02120067  RH  039%=      5-min Rain = 0
KHA3 311814Z 21018KT 21/06 A3006 RMK A01 T02120063  RH  038%=      5-min Rain = 0
KHA3 311815Z 22015KT 21/07 A3006 RMK A01 T02110066  RH  039%=      5-min Rain = 0
KHA3 311816Z 22016KT 21/06 A3005 RMK A01 T02110064  RH  038%=      5-min Rain = 0
KHA3 311817Z 21016KT 21/07 A3006 RMK A01 T02120067  RH  039%=      5-min Rain = 0
KHA3 311818Z 22016KT 21/07 A3005 RMK A01 T02130066  RH  038%=      5-min Rain = 0
KHA3 311819Z 22016KT 21/07 A3005 RMK A01 T02140067  RH  039%=      5-min Rain = 0
KHA3 311820Z 21014KT 21/07 A3005 RMK A01 T02130066  RH  038%=      5-min Rain = 0
KHA3 311821Z 22017G22KT 21/07 A3005 RMK A01 T02140067  RH  039%=      5-min Rain = 0
KHA3 311822Z 22014G19KT 22/07 A3005 RMK A01 T02150065  RH  038%=      5-min Rain = 0
KHA3 311823Z 21016KT 22/07 A3005 RMK A01 T02150067  RH  038%=      5-min Rain = 0
KHA3 311824Z 21019KT 22/06 A3005 RMK A01 T02160064  RH  037%=      5-min Rain = 0
KHA3 311825Z 21020KT 22/06 A3005 RMK A01 T02160061  RH  037%=      5-min Rain = 0
KHA3 311826Z 22019KT 22/06 A3005 RMK A01 T02160062  RH  037%=      5-min Rain = 0
KHA3 311827Z 22016G21KT 22/06 A3005 RMK A01 T02160063  RH  037%=      5-min Rain = 0
KHA3 311828Z 22015KT 22/07 A3005 RMK A01 T02170066  RH  038%=      5-min Rain = 0
KHA3 311829Z 22015KT 22/07 A3004 RMK A01 T02170068  RH  038%=      5-min Rain = 0
KHA3 311830Z 23015KT 22/07 A3005 RMK A01 T02190066  RH  037%=      5-min Rain = 0
KHA3 311831Z 23017KT 22/06 A3005 RMK A01 T02210063  RH  036%=      5-min Rain = 0
KHA3 311832Z 23014G19KT 22/06 A3005 RMK A01 T02190064  RH  037%=      5-min Rain = 0
KHA3 311833Z 23017KT 22/07 A3005 RMK A01 T02180066  RH  037%=      5-min Rain = 0
KHA3 311834Z 23015KT 22/07 A3005 RMK A01 T02180067  RH  038%=      5-min Rain = 0
KHA3 311835Z 23015KT 22/07 A3005 RMK A01 T02190070  RH  038%=      5-min Rain = 0
KHA3 311836Z 22016KT 22/07 A3005 RMK A01 T02190070  RH  038%=      5-min Rain = 0
KHA3 311837Z 22014KT 22/07 A3004 RMK A01 T02200070  RH  038%=      5-min Rain = 0
KHA3 311838Z 23014KT 22/07 A3004 RMK A01 T02200070  RH  038%=      5-min Rain = 0
KHA3 311839Z 23017KT 22/07 A3004 RMK A01 T02220066  RH  037%=      5-min Rain = 0
KHA3 311840Z 22015KT 22/07 A3004 RMK A01 T02210067  RH  037%=      5-min Rain = 0
KHA3 311841Z 22014KT 22/07 A3004 RMK A01 T02210067  RH  037%=      5-min Rain = 0
KHA3 311842Z 22013KT 22/07 A3004 RMK A01 T02220065  RH  036%=      5-min Rain = 0
KHA3 311843Z 21015KT 22/07 A3004 RMK A01 T02230069  RH  037%=      5-min Rain = 0
KHA3 311844Z 22015KT 22/07 A3004 RMK A01 T02240071  RH  037%=      5-min Rain = 0
KHA3 311845Z 21013KT 22/07 A3004 RMK A01 T02240071  RH  037%=      5-min Rain = 0
KHA3 311846Z 21015KT 23/07 A3004 RMK A01 T02250069  RH  036%=      5-min Rain = 0
KHA3 311847Z 21013KT 23/07 A3004 RMK A01 T02270068  RH  036%=      5-min Rain = 0
KHA3 311848Z 23015KT 23/07 A3004 RMK A01 T02270068  RH  036%=      5-min Rain = 0
KHA3 311849Z 21015KT 23/07 A3004 RMK A01 T02250067  RH  036%=      5-min Rain = 0
KHA3 311850Z 21017KT 22/07 A3004 RMK A01 T02240067  RH  036%=      5-min Rain = 0
KHA3 311851Z 21016KT 23/07 A3004 RMK A01 T02260071  RH  037%=      5-min Rain = 0
KHA3 311852Z 22015KT 23/07 A3004 RMK A01 T02260065  RH  035%=      5-min Rain = 0
KHA3 311853Z 22015KT 23/07 A3004 RMK A01 T02250067  RH  036%=      5-min Rain = 0
KHA3 311854Z 21015KT 23/07 A3003 RMK A01 T02250069  RH  036%=      5-min Rain = 0
KHA3 311855Z 22014KT 23/07 A3004 RMK A01 T02270067  RH  036%=      5-min Rain = 0
KHA3 311856Z 21013KT 23/07 A3004 RMK A01 T02270070  RH  036%=      5-min Rain = 0
KHA3 311857Z 23014G19KT 23/07 A3003 RMK A01 T02280071  RH  036%=      5-min Rain = 0
KHA3 311858Z 23014KT 23/07 A3004 RMK A01 T02280068  RH  036%=      5-min Rain = 0
KHA3 311859Z 22012KT 23/07 A3003 RMK A01 T02250066  RH  036%=      5-min Rain = 0
KHA3 311900Z 22015KT 23/07 A3003 RMK A01 T02250067  RH  036%=      5-min Rain = 0
KHA3 311901Z 21016KT 23/07 A3003 RMK A01 T02260068  RH  036%=      5-min Rain = 0
KHA3 311902Z 21015KT 23/07 A3003 RMK A01 T02280070  RH  036%=      5-min Rain = 0
KHA3 311903Z 20013KT 23/07 A3003 RMK A01 T02300065  RH  035%=      5-min Rain = 0
KHA3 311904Z 20012KT 23/07 A3003 RMK A01 T02300067  RH  035%=      5-min Rain = 0
KHA3 311905Z 22015KT 23/07 A3003 RMK A01 T02310068  RH  035%=      5-min Rain = 0
KHA3 311906Z 21016KT 23/07 A3003 RMK A01 T02320069  RH  035%=      5-min Rain = 0
KHA3 311907Z 21015KT 23/07 A3003 RMK A01 T02320069  RH  035%=      5-min Rain = 0
KHA3 311908Z 21011KT 23/07 A3003 RMK A01 T02330069  RH  035%=      5-min Rain = 0
KHA3 311909Z 20012G17KT 24/07 A3002 RMK A01 T02350073  RH  035%=      5-min Rain = 0
KHA3 311910Z 21015KT 24/07 A3002 RMK A01 T02370069  RH  034%=      5-min Rain = 0
KHA3 311911Z 20012KT 24/07 A3002 RMK A01 T02350067  RH  034%=      5-min Rain = 0
KHA3 311912Z 20016KT 24/07 A3002 RMK A01 T02350069  RH  034%=      5-min Rain = 0
KHA3 311913Z 20016KT 24/07 A3002 RMK A01 T02360068  RH  034%=      5-min Rain = 0
KHA3 311914Z 21013KT 24/07 A3002 RMK A01 T02350069  RH  034%=      5-min Rain = 0
KHA3 311915Z 21015KT 24/07 A3002 RMK A01 T02350069  RH  034%=      5-min Rain = 0
KHA3 311916Z 20016KT 24/07 A3002 RMK A01 T02350068  RH  034%=      5-min Rain = 0
KHA3 311917Z 19013KT 24/07 A3002 RMK A01 T02350067  RH  034%=      5-min Rain = 0
KHA3 311918Z 20016KT 23/07 A3002 RMK A01 T02340067  RH  034%=      5-min Rain = 0
KHA3 311919Z 19017KT 23/07 A3002 RMK A01 T02340070  RH  035%=      5-min Rain = 0
KHA3 311920Z 18016KT 23/07 A3001 RMK A01 T02340067  RH  034%=      5-min Rain = 0
KHA3 311921Z 19016KT 23/07 A3001 RMK A01 T02330067  RH  034%=      5-min Rain = 0
KHA3 311922Z 19015KT 23/07 A3001 RMK A01 T02340068  RH  034%=      5-min Rain = 0
KHA3 311923Z 21014KT 24/07 A3001 RMK A01 T02380074  RH  035%=      5-min Rain = 0
KHA3 311924Z 21012KT 24/07 A3001 RMK A01 T02390067  RH  033%=      5-min Rain = 0
KHA3 311925Z 21013KT 24/07 A3001 RMK A01 T02380073  RH  035%=      5-min Rain = 0
KHA3 311926Z 20016KT 24/07 A3001 RMK A01 T02400069  RH  033%=      5-min Rain = 0
KHA3 311927Z 20015KT 24/07 A3001 RMK A01 T02390069  RH  034%=      5-min Rain = 0
KHA3 311928Z 20015KT 24/07 A3001 RMK A01 T02380068  RH  033%=      5-min Rain = 0
KHA3 311929Z 21016KT 24/07 A3001 RMK A01 T02390068  RH  033%=      5-min Rain = 0
KHA3 311930Z 21014KT 24/07 A3001 RMK A01 T02390070  RH  034%=      5-min Rain = 0
KHA3 311931Z 21016KT 24/07 A3001 RMK A01 T02400068  RH  033%=      5-min Rain = 0
KHA3 311932Z 21016KT 24/07 A3001 RMK A01 T02400067  RH  033%=      5-min Rain = 0
KHA3 311933Z 20011KT 24/07 A3001 RMK A01 T02390069  RH  033%=      5-min Rain = 0
KHA3 311934Z 21014KT 24/07 A3001 RMK A01 T02410072  RH  034%=      5-min Rain = 0
KHA3 311935Z 20014KT 24/07 A3001 RMK A01 T02430071  RH  033%=      5-min Rain = 0
KHA3 311936Z 19016KT 24/07 A3001 RMK A01 T02430069  RH  033%=      5-min Rain = 0
KHA3 311937Z 21014G19KT 24/07 A3001 RMK A01 T02430070  RH  033%=      5-min Rain = 0
KHA3 311938Z 21015G20KT 24/07 A3001 RMK A01 T02440069  RH  032%=      5-min Rain = 0
KHA3 311939Z 21015KT 24/07 A3001 RMK A01 T02430070  RH  033%=      5-min Rain = 0
KHA3 311940Z 21013KT 24/07 A3001 RMK A01 T02430069  RH  033%=      5-min Rain = 0
KHA3 311941Z 22014KT 24/07 A3001 RMK A01 T02420069  RH  033%=      5-min Rain = 0
KHA3 311942Z 22015KT 24/07 A3001 RMK A01 T02410071  RH  034%=      5-min Rain = 0
KHA3 311943Z 22014KT 24/07 A3001 RMK A01 T02400071  RH  034%=      5-min Rain = 0
KHA3 311944Z 22017KT 24/07 A3001 RMK A01 T02410070  RH  033%=      5-min Rain = 0
KHA3 311945Z 22016KT 24/07 A3001 RMK A01 T02410070  RH  033%=      5-min Rain = 0
KHA3 311946Z 22015KT 24/07 A3001 RMK A01 T02410069  RH  033%=      5-min Rain = 0
KHA3 311947Z 22016KT 24/07 A3001 RMK A01 T02420072  RH  034%=      5-min Rain = 0
KHA3 311948Z 22014KT 24/08 A3001 RMK A01 T02440075  RH  034%=      5-min Rain = 0
KHA3 311949Z 22017KT 25/07 A3001 RMK A01 T02460074  RH  033%=      5-min Rain = 0
KHA3 311950Z 21016KT 25/07 A3001 RMK A01 T02460070  RH  033%=      5-min Rain = 0
KHA3 311951Z 21016KT 25/07 A30 RMK A01 T02460071  RH  033%=      5-min Rain = 0
KHA3 311952Z 22016KT 25/07 A30 RMK A01 T02470070  RH  032%=      5-min Rain = 0
KHA3 311953Z 22016KT 25/07 A3001 RMK A01 T02470070  RH  032%=      5-min Rain = 0
KHA3 311954Z 23015KT 25/07 A30 RMK A01 T02460067  RH  032%=      5-min Rain = 0
KHA3 311955Z 22014KT 25/07 A3001 RMK A01 T02450070  RH  033%=      5-min Rain = 0
KHA3 311956Z 22014KT 25/07 A3001 RMK A01 T02450069  RH  032%=      5-min Rain = 0
KHA3 311957Z 21015KT 25/07 A3001 RMK A01 T02460069  RH  032%=      5-min Rain = 0
KHA3 311958Z 21015KT 25/07 A3001 RMK A01 T02460071  RH  032%=      5-min Rain = 0
KHA3 311959Z 22016KT 25/07 A3001 RMK A01 T02490073  RH  032%=      5-min Rain = 0
KHA3 312000Z 22015KT 25/07 A3001 RMK A01 T02480070  RH  032%=      5-min Rain = 0
KHA3 312001Z 22014KT 25/07 A3001 RMK A01 T02470071  RH  032%=      5-min Rain = 0
KHA3 312002Z 22014KT 25/07 A3001 RMK A01 T02480072  RH  032%=      5-min Rain = 0
KHA3 312003Z 22016KT 25/07 A3001 RMK A01 T02480070  RH  032%=      5-min Rain = 0
KHA3 312004Z 22016KT 25/07 A3001 RMK A01 T02470071  RH  032%=      5-min Rain = 0
KHA3 312005Z 22018KT 25/07 A3001 RMK A01 T02470072  RH  033%=      5-min Rain = 0
KHA3 312006Z 22015KT 25/07 A3001 RMK A01 T02460067  RH  032%=      5-min Rain = 0
KHA3 312007Z 23015KT 24/07 A3001 RMK A01 T02440070  RH  033%=      5-min Rain = 0
KHA3 312008Z 23013G18KT 24/07 A3001 RMK A01 T02440065  RH  032%=      5-min Rain = 0
KHA3 312009Z 22013KT 24/07 A3001 RMK A01 T02430071  RH  033%=      5-min Rain = 0
KHA3 312010Z 22014KT 24/07 A3001 RMK A01 T02440070  RH  033%=      5-min Rain = 0
KHA3 312011Z 22014KT 25/07 A3001 RMK A01 T02450073  RH  033%=      5-min Rain = 0
KHA3 312012Z 24014KT 25/07 A3002 RMK A01 T02450068  RH  032%=      5-min Rain = 0
KHA3 312013Z 24012KT 24/07 A3002 RMK A01 T02440067  RH  032%=      5-min Rain = 0
KHA3 312014Z 24011KT 24/07 A3002 RMK A01 T02440070  RH  033%=      5-min Rain = 0
KHA3 312015Z 24010KT 24/07 A3002 RMK A01 T02440071  RH  033%=      5-min Rain = 0
KHA3 312016Z 23011KT 24/07 A3002 RMK A01 T02440073  RH  033%=      5-min Rain = 0
KHA3 312017Z 22013KT 25/07 A3002 RMK A01 T02450072  RH  033%=      5-min Rain = 0
KHA3 312018Z 22014KT 25/07 A3002 RMK A01 T02470074  RH  033%=      5-min Rain = 0
KHA3 312019Z 23015KT 25/07 A3001 RMK A01 T02470071  RH  032%=      5-min Rain = 0
KHA3 312020Z 23014KT 25/07 A3002 RMK A01 T02460071  RH  033%=      5-min Rain = 0
KHA3 312021Z 24013KT 25/07 A3001 RMK A01 T02460073  RH  033%=      5-min Rain = 0
KHA3 312022Z 21010KT 25/07 A3001 RMK A01 T02450074  RH  033%=      5-min Rain = 0
KHA3 312023Z 21012KT 25/07 A3001 RMK A01 T02460072  RH  033%=      5-min Rain = 0
KHA3 312024Z 22014KT 25/07 A3001 RMK A01 T02470071  RH  032%=      5-min Rain = 0
KHA3 312025Z 23013KT 25/08 A3001 RMK A01 T02490075  RH  033%=      5-min Rain = 0
KHA3 312026Z 23012KT 25/07 A3001 RMK A01 T02480066  RH  031%=      5-min Rain = 0
KHA3 312027Z 22010KT 25/08 A3001 RMK A01 T02470075  RH  033%=      5-min Rain = 0
KHA3 312028Z 23009G14KT 25/08 A3001 RMK A01 T02480077  RH  033%=      5-min Rain = 0
KHA3 312029Z 24011KT 25/07 A3001 RMK A01 T02500071  RH  032%=      5-min Rain = 0
KHA3 312030Z 24009KT 25/07 A3001 RMK A01 T02480069  RH  032%=      5-min Rain = 0
KHA3 312031Z 22009KT 25/08 A3001 RMK A01 T02480076  RH  033%=      5-min Rain = 0
KHA3 312032Z 23010KT 25/07 A3001 RMK A01 T02490072  RH  032%=      5-min Rain = 0
KHA3 312033Z 23013KT 25/07 A3001 RMK A01 T02490074  RH  033%=      5-min Rain = 0
KHA3 312034Z 22009KT 25/08 A3001 RMK A01 T02490075  RH  033%=      5-min Rain = 0
KHA3 312035Z 22011KT 25/07 A3001 RMK A01 T02490074  RH  033%=      5-min Rain = 0
KHA3 312036Z 22011KT 25/07 A3001 RMK A01 T02490071  RH  032%=      5-min Rain = 0
KHA3 312037Z 23012KT 25/08 A3001 RMK A01 T02480076  RH  034%=      5-min Rain = 0
KHA3 312038Z 23012KT 25/08 A3001 RMK A01 T02470078  RH  034%=      5-min Rain = 0
KHA3 312039Z 22010KT 25/07 A3001 RMK A01 T02470074  RH  033%=      5-min Rain = 0
KHA3 312040Z 22010KT 25/08 A3001 RMK A01 T02470075  RH  033%=      5-min Rain = 0
KHA3 312041Z 23011KT 25/07 A3001 RMK A01 T02470073  RH  033%=      5-min Rain = 0
KHA3 312042Z 21012KT 25/07 A3001 RMK A01 T02490074  RH  033%=      5-min Rain = 0
KHA3 312043Z 21012KT 25/07 A3001 RMK A01 T02490073  RH  032%=      5-min Rain = 0
KHA3 312044Z 21012KT 25/07 A3001 RMK A01 T02500071  RH  032%=      5-min Rain = 0
KHA3 312045Z 21010KT 25/07 A3001 RMK A01 T02500072  RH  032%=      5-min Rain = 0
KHA3 312046Z 20011KT 25/08 A3001 RMK A01 T02510075  RH  032%=      5-min Rain = 0
KHA3 312047Z 22011KT 25/08 A3001 RMK A01 T02540076  RH  032%=      5-min Rain = 0
KHA3 312048Z 21012KT 26/08 A3001 RMK A01 T02550076  RH  032%=      5-min Rain = 0
KHA3 312049Z 20011KT 25/07 A3001 RMK A01 T02540074  RH  032%=      5-min Rain = 0
KHA3 312050Z 21014KT 25/07 A3001 RMK A01 T02530072  RH  032%=      5-min Rain = 0
KHA3 312051Z 21011KT 25/07 A3001 RMK A01 T02530073  RH  032%=      5-min Rain = 0
KHA3 312052Z 21010KT 25/07 A3001 RMK A01 T02530073  RH  032%=      5-min Rain = 0
KHA3 312053Z 21012KT 25/08 A3001 RMK A01 T02530075  RH  032%=      5-min Rain = 0
KHA3 312054Z 20012KT 25/08 A3001 RMK A01 T02540075  RH  032%=      5-min Rain = 0
KHA3 312055Z 20011KT 25/07 A3001 RMK A01 T02530074  RH  032%=      5-min Rain = 0
KHA3 312056Z 21012KT 25/08 A3001 RMK A01 T02530076  RH  032%=      5-min Rain = 0
KHA3 312057Z 21013KT 25/07 A3001 RMK A01 T02540073  RH  032%=      5-min Rain = 0
KHA3 312058Z 22014KT 25/08 A3001 RMK A01 T02540075  RH  032%=      5-min Rain = 0
KHA3 312059Z 23011KT 25/07 A3001 RMK A01 T02530073  RH  032%=      5-min Rain = 0
KHA3 312100Z 23010KT 25/08 A3001 RMK A01 T02520075  RH  032%=      5-min Rain = 0
KHA3 312101Z 22011KT 25/08 A3001 RMK A01 T02520078  RH  033%=      5-min Rain = 0
KHA3 312102Z 22012KT 25/08 A3001 RMK A01 T02520077  RH  033%=      5-min Rain = 0
KHA3 312103Z 22012KT 25/07 A3001 RMK A01 T02520073  RH  032%=      5-min Rain = 0
KHA3 312104Z 22010KT 25/07 A3001 RMK A01 T02530071  RH  031%=      5-min Rain = 0
KHA3 312105Z 21009KT 25/08 A3001 RMK A01 T02530078  RH  033%=      5-min Rain = 0
KHA3 312106Z 21011KT 25/08 A3001 RMK A01 T02540078  RH  033%=      5-min Rain = 0
KHA3 312107Z 21010KT 26/08 A3001 RMK A01 T02560079  RH  032%=      5-min Rain = 0
KHA3 312108Z 21010KT 26/08 A3001 RMK A01 T02570075  RH  031%=      5-min Rain = 0
KHA3 312109Z 20009KT 26/08 A3001 RMK A01 T02570077  RH  032%=      5-min Rain = 0
KHA3 312110Z 23011KT 26/08 A3001 RMK A01 T02580077  RH  032%=      5-min Rain = 0
KHA3 312111Z 22011KT 26/08 A3001 RMK A01 T02570075  RH  031%=      5-min Rain = 0
KHA3 312112Z 22011KT 26/07 A3001 RMK A01 T02570074  RH  031%=      5-min Rain = 0
KHA3 312113Z 22010KT 26/08 A3001 RMK A01 T02570076  RH  032%=      5-min Rain = 0
KHA3 312114Z 23009KT 26/08 A3001 RMK A01 T02570075  RH  031%=      5-min Rain = 0
KHA3 312115Z 23011KT 26/08 A3001 RMK A01 T02580080  RH  032%=      5-min Rain = 0
KHA3 312116Z 24013KT 26/08 A3001 RMK A01 T02580076  RH  031%=      5-min Rain = 0
KHA3 312117Z 23013KT 26/07 A3001 RMK A01 T02570071  RH  031%=      5-min Rain = 0
KHA3 312118Z 22013KT 26/07 A3001 RMK A01 T02560072  RH  031%=      5-min Rain = 0
KHA3 312119Z 22011KT 26/07 A3001 RMK A01 T02570074  RH  031%=      5-min Rain = 0
KHA3 312120Z 24013KT 26/07 A3001 RMK A01 T02580074  RH  031%=      5-min Rain = 0
KHA3 312121Z 22014KT 26/07 A3001 RMK A01 T02580074  RH  031%=      5-min Rain = 0
KHA3 312122Z 22014KT 26/07 A3001 RMK A01 T02580072  RH  031%=      5-min Rain = 0
KHA3 312123Z 23013KT 26/07 A3001 RMK A01 T02570071  RH  031%=      5-min Rain = 0
KHA3 312124Z 22014KT 26/07 A3001 RMK A01 T02570072  RH  031%=      5-min Rain = 0
KHA3 312125Z 22012KT 26/07 A3001 RMK A01 T02570070  RH  030%=      5-min Rain = 0
KHA3 312126Z 22012KT 26/07 A3001 RMK A01 T02570070  RH  030%=      5-min Rain = 0
KHA3 312127Z 22011KT 26/07 A3001 RMK A01 T02580074  RH  031%=      5-min Rain = 0
KHA3 312128Z 22012KT 26/08 A3001 RMK A01 T02590075  RH  031%=      5-min Rain = 0
KHA3 312129Z 22015KT 26/07 A3001 RMK A01 T02600073  RH  030%=      5-min Rain = 0
KHA3 312130Z 22012KT 26/07 A3001 RMK A01 T02600074  RH  031%=      5-min Rain = 0
KHA3 312131Z 23011KT 26/08 A3001 RMK A01 T02590075  RH  031%=      5-min Rain = 0
KHA3 312132Z 22010KT 26/07 A3001 RMK A01 T02590074  RH  031%=      5-min Rain = 0
KHA3 312133Z 21013KT 26/07 A3001 RMK A01 T02590074  RH  031%=      5-min Rain = 0
KHA3 312134Z 22013KT 26/07 A3001 RMK A01 T02600071  RH  030%=      5-min Rain = 0
KHA3 312135Z 22010KT 26/07 A3001 RMK A01 T02600072  RH  030%=      5-min Rain = 0
KHA3 312136Z 23011KT 26/08 A3001 RMK A01 T02600075  RH  031%=      5-min Rain = 0
KHA3 312137Z 22012KT 26/08 A3001 RMK A01 T02610075  RH  031%=      5-min Rain = 0
KHA3 312138Z 22012KT 26/08 A3001 RMK A01 T02610075  RH  031%=      5-min Rain = 0
KHA3 312139Z 23011KT 26/08 A3001 RMK A01 T02610076  RH  031%=      5-min Rain = 0
KHA3 312140Z 23011KT 26/07 A3001 RMK A01 T02610073  RH  030%=      5-min Rain = 0
KHA3 312141Z 22010KT 26/08 A3001 RMK A01 T02610075  RH  031%=      5-min Rain = 0
KHA3 312142Z 22009KT 26/08 A3001 RMK A01 T02610076  RH  031%=      5-min Rain = 0
KHA3 312143Z 22012KT 26/08 A3001 RMK A01 T02610076  RH  031%=      5-min Rain = 0
KHA3 312144Z 22014KT 26/07 A3001 RMK A01 T02610074  RH  030%=      5-min Rain = 0
KHA3 312145Z 22012KT 26/07 A3001 RMK A01 T02610074  RH  030%=      5-min Rain = 0
KHA3 312146Z 22012KT 26/07 A3001 RMK A01 T02610074  RH  030%=      5-min Rain = 0
KHA3 312147Z 23011KT 26/07 A3002 RMK A01 T02610072  RH  030%=      5-min Rain = 0
KHA3 312148Z 23009KT 26/08 A3002 RMK A01 T02600079  RH  032%=      5-min Rain = 0
KHA3 312149Z 22012KT 26/08 A3001 RMK A01 T02590075  RH  031%=      5-min Rain = 0
KHA3 312150Z 22012KT 26/07 A3001 RMK A01 T02590073  RH  031%=      5-min Rain = 0
KHA3 312151Z 22011KT 26/07 A3001 RMK A01 T02590074  RH  031%=      5-min Rain = 0
KHA3 312152Z 21013KT 26/07 A3001 RMK A01 T02600074  RH  031%=      5-min Rain = 0
KHA3 312153Z 21011KT 26/08 A3001 RMK A01 T02610075  RH  031%=      5-min Rain = 0
KHA3 312154Z 21010KT 26/08 A3001 RMK A01 T02620076  RH  031%=      5-min Rain = 0
KHA3 312155Z 22009KT 26/08 A3001 RMK A01 T02630076  RH  030%=      5-min Rain = 0
KHA3 312156Z 23008KT 26/08 A3001 RMK A01 T02640080  RH  031%=      5-min Rain = 0
KHA3 312157Z 23012KT 26/08 A3002 RMK A01 T02640082  RH  031%=      5-min Rain = 0
KHA3 312158Z 23010KT 26/08 A3002 RMK A01 T02630076  RH  030%=      5-min Rain = 0
KHA3 312159Z 23008KT 26/08 A3002 RMK A01 T02620078  RH  031%=      5-min Rain = 0
KHA3 312200Z 23009KT 26/08 A3002 RMK A01 T02610076  RH  031%=      5-min Rain = 0
KHA3 312201Z 24007KT 26/08 A3002 RMK A01 T02610079  RH  032%=      5-min Rain = 0
KHA3 312202Z 22008KT 26/08 A3002 RMK A01 T02610079  RH  032%=      5-min Rain = 0
KHA3 312203Z 23009KT 26/08 A3002 RMK A01 T02610078  RH  031%=      5-min Rain = 0
KHA3 312204Z 24007KT 26/09 A3002 RMK A01 T02610085  RH  033%=      5-min Rain = 0
KHA3 312205Z 24008KT 26/08 A3002 RMK A01 T02610084  RH  032%=      5-min Rain = 0
KHA3 312206Z 24008KT 26/08 A3002 RMK A01 T02610083  RH  032%=      5-min Rain = 0
KHA3 312207Z 23009KT 26/09 A3002 RMK A01 T02600085  RH  033%=      5-min Rain = 0
KHA3 312208Z 24010KT 26/08 A3002 RMK A01 T02600082  RH  032%=      5-min Rain = 0
KHA3 312209Z 23011KT 26/08 A3002 RMK A01 T02600078  RH  031%=      5-min Rain = 0
KHA3 312210Z 22009KT 26/08 A3002 RMK A01 T02600078  RH  031%=      5-min Rain = 0
KHA3 312211Z 22009KT 26/08 A3002 RMK A01 T02600078  RH  031%=      5-min Rain = 0
KHA3 312212Z 22009KT 26/08 A3002 RMK A01 T02610075  RH  031%=      5-min Rain = 0
KHA3 312213Z 22009KT 26/08 A3002 RMK A01 T02620076  RH  031%=      5-min Rain = 0
KHA3 312214Z 22007KT 26/08 A3002 RMK A01 T02630076  RH  030%=      5-min Rain = 0
KHA3 312215Z 22007KT 26/08 A3002 RMK A01 T02630082  RH  032%=      5-min Rain = 0
KHA3 312216Z 23009KT 26/08 A3002 RMK A01 T02640076  RH  030%=      5-min Rain = 0
KHA3 312217Z 24007KT 26/07 A3002 RMK A01 T02640074  RH  030%=      5-min Rain = 0
KHA3 312218Z 24007KT 26/08 A3002 RMK A01 T02640079  RH  031%=      5-min Rain = 0
KHA3 312219Z 23008KT 26/08 A3002 RMK A01 T02640080  RH  031%=      5-min Rain = 0
KHA3 312220Z 23007KT 26/08 A3002 RMK A01 T02640077  RH  030%=      5-min Rain = 0
KHA3 312221Z 23006KT 26/08 A3002 RMK A01 T02640081  RH  031%=      5-min Rain = 0
KHA3 312222Z 22005KT 26/08 A3002 RMK A01 T02640080  RH  031%=      5-min Rain = 0
KHA3 312223Z 22007KT 27/08 A3002 RMK A01 T02650079  RH  031%=      5-min Rain = 0
KHA3 312224Z 22006KT 27/08 A3002 RMK A01 T02650079  RH  031%=      5-min Rain = 0
KHA3 312225Z 23009KT 27/08 A3002 RMK A01 T02650081  RH  031%=      5-min Rain = 0
KHA3 312226Z 22008KT 27/08 A3002 RMK A01 T02650079  RH  031%=      5-min Rain = 0
KHA3 312227Z 22007KT 26/08 A3002 RMK A01 T02640080  RH  031%=      5-min Rain = 0
KHA3 312228Z 22006KT 26/08 A3002 RMK A01 T02640081  RH  031%=      5-min Rain = 0
KHA3 312229Z 23006KT 26/08 A3002 RMK A01 T02640083  RH  032%=      5-min Rain = 0
KHA3 312230Z 23006KT 26/08 A3002 RMK A01 T02630082  RH  032%=      5-min Rain = 0
KHA3 312231Z 23007KT 26/08 A3002 RMK A01 T02630084  RH  032%=      5-min Rain = 0
KHA3 312232Z 23006KT 26/09 A3002 RMK A01 T02620086  RH  033%=      5-min Rain = 0
KHA3 312233Z 23006KT 26/09 A3002 RMK A01 T02610089  RH  034%=      5-min Rain = 0
KHA3 312234Z 23006KT 26/09 A3002 RMK A01 T02610089  RH  034%=      5-min Rain = 0
KHA3 312235Z 23006KT 26/09 A3002 RMK A01 T02600085  RH  033%=      5-min Rain = 0
KHA3 312236Z 22007KT 26/09 A3002 RMK A01 T02600085  RH  033%=      5-min Rain = 0
KHA3 312237Z 21007KT 26/08 A3002 RMK A01 T02600083  RH  032%=      5-min Rain = 0
KHA3 312238Z 22007KT 26/08 A3002 RMK A01 T02600078  RH  031%=      5-min Rain = 0
KHA3 312239Z 22006KT 26/08 A3002 RMK A01 T02610078  RH  031%=      5-min Rain = 0
KHA3 312240Z 23007KT 26/08 A3002 RMK A01 T02620079  RH  031%=      5-min Rain = 0
KHA3 312241Z 23008KT 26/08 A3002 RMK A01 T02610081  RH  032%=      5-min Rain = 0
KHA3 312242Z 23006KT 26/08 A3003 RMK A01 T02600081  RH  032%=      5-min Rain = 0
KHA3 312243Z 22007KT 26/08 A3003 RMK A01 T02590081  RH  032%=      5-min Rain = 0
KHA3 312244Z 22006KT 26/08 A3003 RMK A01 T02580082  RH  033%=      5-min Rain = 0
KHA3 312245Z 23007KT 26/08 A3003 RMK A01 T02580080  RH  032%=      5-min Rain = 0
KHA3 312246Z 23007KT 26/08 A3003 RMK A01 T02580081  RH  032%=      5-min Rain = 0
KHA3 312247Z 22005KT 26/09 A3003 RMK A01 T02570085  RH  034%=      5-min Rain = 0
KHA3 312248Z 22005KT 26/09 A3003 RMK A01 T02560087  RH  034%=      5-min Rain = 0
KHA3 312249Z 23004KT 25/09 A3003 RMK A01 T02540088  RH  035%=      5-min Rain = 0
KHA3 312250Z 23005KT 25/09 A3003 RMK A01 T02530085  RH  034%=      5-min Rain = 0
KHA3 312251Z 23005KT 25/09 A3003 RMK A01 T02520088  RH  035%=      5-min Rain = 0
KHA3 312252Z 24005KT 25/09 A3003 RMK A01 T02510088  RH  035%=      5-min Rain = 0
KHA3 312253Z 23004KT 25/09 A3003 RMK A01 T02510086  RH  035%=      5-min Rain = 0
KHA3 312254Z 23004KT 25/09 A3003 RMK A01 T02510090  RH  036%=      5-min Rain = 0
KHA3 312255Z 24005KT 25/09 A3003 RMK A01 T02490090  RH  036%=      5-min Rain = 0
KHA3 312256Z 24004KT 25/09 A3003 RMK A01 T02490087  RH  036%=      5-min Rain = 0
KHA3 312257Z 23005KT 25/09 A3003 RMK A01 T02490086  RH  036%=      5-min Rain = 0
KHA3 312258Z 23006KT 25/09 A3003 RMK A01 T02490085  RH  035%=      5-min Rain = 0
KHA3 312259Z 24005KT 25/09 A3003 RMK A01 T02490085  RH  035%=      5-min Rain = 0
KHA3 312300Z 24005KT 25/09 A3003 RMK A01 T02490087  RH  036%=      5-min Rain = 0
KHA3 312301Z 25004KT 25/10 A3004 RMK A01 T02480095  RH  038%=      5-min Rain = 0
KHA3 312302Z 26004KT 25/09 A3004 RMK A01 T02450091  RH  037%=      5-min Rain = 0
KHA3 312303Z 26003KT 24/09 A3004 RMK A01 T02440090  RH  037%=      5-min Rain = 0
KHA3 312304Z 27004KT 24/09 A3004 RMK A01 T02430089  RH  038%=      5-min Rain = 0
KHA3 312305Z 27004KT 24/08 A3004 RMK A01 T02430084  RH  036%=      5-min Rain = 0
KHA3 312306Z 28004KT 24/08 A3004 RMK A01 T02430084  RH  036%=      5-min Rain = 0
KHA3 312307Z 28004KT 24/08 A3004 RMK A01 T02430083  RH  036%=      5-min Rain = 0
KHA3 312308Z 29004KT 24/08 A3004 RMK A01 T02430081  RH  035%=      5-min Rain = 0
KHA3 312309Z 29004KT 24/08 A3004 RMK A01 T02430079  RH  035%=      5-min Rain = 0
KHA3 312310Z 30004KT 24/08 A3004 RMK A01 T02440079  RH  035%=      5-min Rain = 0
KHA3 312311Z 30004KT 24/08 A3004 RMK A01 T02440082  RH  036%=      5-min Rain = 0
KHA3 312312Z 30004KT 24/08 A3005 RMK A01 T02430083  RH  036%=      5-min Rain = 0
KHA3 312313Z 31004KT 24/08 A3005 RMK A01 T02420083  RH  036%=      5-min Rain = 0
KHA3 312314Z 32005KT 24/09 A3005 RMK A01 T02410085  RH  037%=      5-min Rain = 0
KHA3 312315Z 32005KT 24/09 A3005 RMK A01 T02390087  RH  038%=      5-min Rain = 0
KHA3 312316Z 32005KT 24/09 A3005 RMK A01 T02370085  RH  038%=      5-min Rain = 0
KHA3 312317Z 31005KT 24/09 A3005 RMK A01 T02360085  RH  038%=      5-min Rain = 0
KHA3 312318Z 30005KT 24/08 A3005 RMK A01 T02360083  RH  038%=      5-min Rain = 0
KHA3 312319Z 31005KT 24/08 A3005 RMK A01 T02360081  RH  037%=      5-min Rain = 0
KHA3 312320Z 33006KT 24/08 A3005 RMK A01 T02370082  RH  037%=      5-min Rain = 0
KHA3 312321Z 33004KT 24/09 A3005 RMK A01 T02360085  RH  038%=      5-min Rain = 0
KHA3 312322Z 33005KT 23/08 A3005 RMK A01 T02340083  RH  038%=      5-min Rain = 0
KHA3 312323Z 32005KT 23/08 A3006 RMK A01 T02340082  RH  038%=      5-min Rain = 0
KHA3 312324Z 32005KT 23/08 A3006 RMK A01 T02340082  RH  038%=      5-min Rain = 0
KHA3 312325Z 33006KT 24/08 A3006 RMK A01 T02360082  RH  037%=      5-min Rain = 0
KHA3 312326Z 33005KT 24/08 A3006 RMK A01 T02360082  RH  037%=      5-min Rain = 0
KHA3 312327Z 33006KT 24/08 A3006 RMK A01 T02370081  RH  037%=      5-min Rain = 0
KHA3 312328Z 33007KT 24/08 A3006 RMK A01 T02390082  RH  037%=      5-min Rain = 0
KHA3 312329Z 34007KT 24/08 A3006 RMK A01 T02390083  RH  037%=      5-min Rain = 0
KHA3 312330Z 34008KT 24/08 A3006 RMK A01 T02380083  RH  037%=      5-min Rain = 0
KHA3 312331Z 34009KT 24/08 A3007 RMK A01 T02360083  RH  038%=      5-min Rain = 0
KHA3 312332Z 34008KT 23/08 A3007 RMK A01 T02330084  RH  038%=      5-min Rain = 0
KHA3 312333Z 34008KT 23/09 A3007 RMK A01 T02310085  RH  039%=      5-min Rain = 0
KHA3 312334Z 34009KT 23/09 A3007 RMK A01 T02290085  RH  040%=      5-min Rain = 0
KHA3 312335Z 35009KT 23/09 A3007 RMK A01 T02280085  RH  040%=      5-min Rain = 0
KHA3 312336Z 35008KT 23/09 A3007 RMK A01 T02270085  RH  040%=      5-min Rain = 0
KHA3 312337Z 35007KT 23/09 A3007 RMK A01 T02270086  RH  041%=      5-min Rain = 0
KHA3 312338Z 36008KT 23/09 A3007 RMK A01 T02250086  RH  041%=      5-min Rain = 0
KHA3 312339Z 36008KT 22/09 A3007 RMK A01 T02240085  RH  041%=      5-min Rain = 0
KHA3 312340Z 36008KT 22/09 A3007 RMK A01 T02230086  RH  041%=      5-min Rain = 0
KHA3 312341Z 36009KT 22/09 A3007 RMK A01 T02220085  RH  042%=      5-min Rain = 0
KHA3 312342Z 36009KT 22/09 A3007 RMK A01 T02200086  RH  042%=      5-min Rain = 0
KHA3 312343Z 36009KT 22/09 A3007 RMK A01 T02180085  RH  042%=      5-min Rain = 0
KHA3 312344Z 36009KT 22/08 A3008 RMK A01 T02170084  RH  042%=      5-min Rain = 0
KHA3 312345Z 36009KT 22/09 A3008 RMK A01 T02170085  RH  043%=      5-min Rain = 0
KHA3 312346Z 36008KT 22/08 A3008 RMK A01 T02150084  RH  043%=      5-min Rain = 0
KHA3 312347Z 36008KT 21/08 A3008 RMK A01 T02130084  RH  043%=      5-min Rain = 0
KHA3 312348Z 36008KT 21/08 A3008 RMK A01 T02120084  RH  044%=      5-min Rain = 0
KHA3 312349Z 00009KT 21/08 A3008 RMK A01 T02110083  RH  044%=      5-min Rain = 0
KHA3 312350Z 00008KT 21/08 A3008 RMK A01 T02110083  RH  044%=      5-min Rain = 0
KHA3 312351Z 00008KT 21/08 A3008 RMK A01 T02100082  RH  044%=      5-min Rain = 0
KHA3 312352Z 01008KT 21/08 A3008 RMK A01 T02090082  RH  044%=      5-min Rain = 0
KHA3 312353Z 01008KT 21/08 A3008 RMK A01 T02080081  RH  044%=      5-min Rain = 0
KHA3 312354Z 01008KT 21/08 A3008 RMK A01 T02070081  RH  044%=      5-min Rain = 0
KHA3 312355Z 01007KT 21/08 A3008 RMK A01 T02070080  RH  044%=      5-min Rain = 0
KHA3 312356Z 01007KT 21/08 A3008 RMK A01 T02060080  RH  044%=      5-min Rain = 0
KHA3 312357Z 01008KT 21/08 A3008 RMK A01 T02050080  RH  044%=      5-min Rain = 0
KHA3 312358Z 01008KT 20/08 A3008 RMK A01 T02040080  RH  045%=      5-min Rain = 0
KHA3 312359Z 01008KT 20/08 A3008 RMK A01 T02040080  RH  045%=      5-min Rain = 0
KHA3 010000Z 01009KT 20/08 A3009 RMK A01 T02030080  RH  045%=      5-min Rain = 0
KHA3 010001Z 01009KT 20/08 A3009 RMK A01 T02030081  RH  045%=      5-min Rain = 0
KHA3 010002Z 02008KT 20/08 A3009 RMK A01 T02020081  RH  046%=      5-min Rain = 0
KHA3 010003Z 02009KT 20/08 A3009 RMK A01 T02020082  RH  046%=      5-min Rain = 0
KHA3 010004Z 02008KT 20/08 A3009 RMK A01 T02020082  RH  046%=      5-min Rain = 0
KHA3 010005Z 02008KT 20/08 A3009 RMK A01 T02010082  RH  046%=      5-min Rain = 0
KHA3 010006Z 02008KT 20/08 A3009 RMK A01 T02010083  RH  046%=      5-min Rain = 0
KHA3 010007Z 03008KT 20/08 A3009 RMK A01 T02010083  RH  047%=      5-min Rain = 0
KHA3 010008Z 03009KT 20/08 A3009 RMK A01 T02010084  RH  047%=      5-min Rain = 0
KHA3 010009Z 03009KT 20/08 A3009 RMK A01 T02000084  RH  047%=      5-min Rain = 0
KHA3 010010Z 03009KT 20/09 A301 RMK A01 T02010085  RH  047%=      5-min Rain = 0
KHA3 010011Z 03009KT 20/08 A301 RMK A01 T02000084  RH  047%=      5-min Rain = 0
KHA3 010012Z 03008KT 20/08 A301 RMK A01 T02010084  RH  047%=      5-min Rain = 0
KHA3 010013Z 04008KT 20/08 A301 RMK A01 T02010084  RH  047%=      5-min Rain = 0
KHA3 010014Z 04008KT 20/08 A301 RMK A01 T02000084  RH  047%=      5-min Rain = 0
KHA3 010015Z 04008KT 20/08 A301 RMK A01 T02000084  RH  047%=      5-min Rain = 0
KHA3 010016Z 04009KT 20/08 A301 RMK A01 T02000083  RH  047%=      5-min Rain = 0
KHA3 010017Z 03009KT 20/08 A301 RMK A01 T02000083  RH  047%=      5-min Rain = 0
KHA3 010018Z 03009KT 20/08 A301 RMK A01 T01990083  RH  047%=      5-min Rain = 0
KHA3 010019Z 03009KT 20/08 A301 RMK A01 T01980083  RH  047%=      5-min Rain = 0
KHA3 010020Z 03009KT 20/08 A3011 RMK A01 T01970083  RH  048%=      5-min Rain = 0
KHA3 010021Z 04009KT 20/08 A3011 RMK A01 T01960083  RH  048%=      5-min Rain = 0
KHA3 010022Z 04009KT 20/08 A3011 RMK A01 T01960083  RH  048%=      5-min Rain = 0
KHA3 010023Z 04009KT 20/08 A3011 RMK A01 T01950082  RH  048%=      5-min Rain = 0
KHA3 010024Z 03010KT 20/08 A3011 RMK A01 T01950083  RH  048%=      5-min Rain = 0
KHA3 010025Z 03010KT 20/08 A3011 RMK A01 T01950083  RH  048%=      5-min Rain = 0
KHA3 010026Z 03010KT 20/08 A3012 RMK A01 T01950083  RH  048%=      5-min Rain = 0
KHA3 010027Z 03010KT 19/08 A3012 RMK A01 T01940082  RH  048%=      5-min Rain = 0
KHA3 010028Z 03009KT 19/08 A3012 RMK A01 T01940083  RH  048%=      5-min Rain = 0
KHA3 010029Z 03010KT 19/08 A3012 RMK A01 T01940083  RH  048%=      5-min Rain = 0
KHA3 010030Z 03010KT 19/08 A3012 RMK A01 T01940082  RH  048%=      5-min Rain = 0
KHA3 010031Z 03010KT 19/08 A3012 RMK A01 T01930083  RH  049%=      5-min Rain = 0
KHA3 010032Z 03010KT 19/08 A3012 RMK A01 T01930082  RH  049%=      5-min Rain = 0
KHA3 010033Z 03010KT 19/08 A3012 RMK A01 T01930082  RH  049%=      5-min Rain = 0
KHA3 010034Z 03010KT 19/08 A3012 RMK A01 T01940082  RH  048%=      5-min Rain = 0
KHA3 010035Z 03010KT 19/08 A3012 RMK A01 T01930082  RH  049%=      5-min Rain = 0
KHA3 010036Z 03009KT 19/08 A3012 RMK A01 T01930083  RH  049%=      5-min Rain = 0
KHA3 010037Z 03009KT 19/08 A3012 RMK A01 T01930083  RH  049%=      5-min Rain = 0
KHA3 010038Z 03010KT 19/08 A3012 RMK A01 T01930083  RH  049%=      5-min Rain = 0
KHA3 010039Z 03010KT 19/08 A3013 RMK A01 T01930084  RH  049%=      5-min Rain = 0
KHA3 010040Z 03009KT 19/08 A3013 RMK A01 T01930084  RH  049%=      5-min Rain = 0
KHA3 010041Z 04009KT 19/08 A3013 RMK A01 T01930084  RH  049%=      5-min Rain = 0
KHA3 010042Z 04008KT 19/08 A3013 RMK A01 T01930084  RH  049%=      5-min Rain = 0
KHA3 010043Z 05008KT 19/08 A3013 RMK A01 T01930084  RH  049%=      5-min Rain = 0
KHA3 010044Z 04008KT 19/09 A3013 RMK A01 T01930085  RH  050%=      5-min Rain = 0
KHA3 010045Z 05008KT 19/09 A3013 RMK A01 T01920085  RH  050%=      5-min Rain = 0
KHA3 010046Z 05007KT 19/09 A3013 RMK A01 T01910085  RH  050%=      5-min Rain = 0
KHA3 010047Z 05008KT 19/09 A3013 RMK A01 T01900085  RH  050%=      5-min Rain = 0
KHA3 010048Z 05008KT 19/09 A3013 RMK A01 T01900085  RH  051%=      5-min Rain = 0
KHA3 010049Z 05008KT 19/09 A3013 RMK A01 T01880085  RH  051%=      5-min Rain = 0
KHA3 010050Z 05009KT 19/09 A3013 RMK A01 T01870086  RH  052%=      5-min Rain = 0
KHA3 010051Z 05009KT 19/09 A3013 RMK A01 T01850086  RH  052%=      5-min Rain = 0
KHA3 010052Z 05008KT 18/09 A3013 RMK A01 T01840086  RH  053%=      5-min Rain = 0
KHA3 010053Z 05008KT 18/09 A3013 RMK A01 T01820086  RH  053%=      5-min Rain = 0
KHA3 010054Z 05007KT 18/09 A3014 RMK A01 T01810086  RH  054%=      5-min Rain = 0
KHA3 010055Z 04007KT 18/09 A3014 RMK A01 T01790086  RH  054%=      5-min Rain = 0
KHA3 010056Z 04007KT 18/09 A3014 RMK A01 T01770086  RH  055%=      5-min Rain = 0
KHA3 010057Z 04007KT 18/09 A3014 RMK A01 T01770087  RH  055%=      5-min Rain = 0
KHA3 010058Z 04007KT 18/09 A3014 RMK A01 T01760087  RH  056%=      5-min Rain = 0
KHA3 010059Z 05007KT 18/09 A3014 RMK A01 T01750086  RH  056%=      5-min Rain = 0
KHA3 010100Z 05007KT 18/09 A3014 RMK A01 T01750087  RH  056%=      5-min Rain = 0
KHA3 010101Z 05007KT 18/09 A3014 RMK A01 T01750087  RH  056%=      5-min Rain = 0
KHA3 010102Z 05008KT 17/09 A3014 RMK A01 T01740087  RH  056%=      5-min Rain = 0
KHA3 010103Z 05007KT 17/09 A3015 RMK A01 T01730087  RH  057%=      5-min Rain = 0
KHA3 010104Z 05007KT 17/09 A3015 RMK A01 T01730087  RH  057%=      5-min Rain = 0
KHA3 010105Z 05007KT 17/09 A3015 RMK A01 T01720087  RH  057%=      5-min Rain = 0
KHA3 010106Z 05007KT 17/09 A3015 RMK A01 T01710087  RH  057%=      5-min Rain = 0
KHA3 010107Z 05007KT 17/09 A3015 RMK A01 T01710087  RH  058%=      5-min Rain = 0
KHA3 010108Z 05007KT 17/09 A3015 RMK A01 T01700087  RH  058%=      5-min Rain = 0
KHA3 010109Z 05007KT 17/09 A3015 RMK A01 T01690087  RH  058%=      5-min Rain = 0
KHA3 010110Z 05007KT 17/09 A3015 RMK A01 T01690087  RH  058%=      5-min Rain = 0
KHA3 010111Z 06007KT 17/09 A3015 RMK A01 T01690087  RH  059%=      5-min Rain = 0
KHA3 010112Z 06006KT 17/09 A3015 RMK A01 T01680087  RH  059%=      5-min Rain = 0
KHA3 010113Z 06006KT 17/09 A3016 RMK A01 T01680087  RH  059%=      5-min Rain = 0
KHA3 010114Z 06006KT 17/09 A3016 RMK A01 T01670087  RH  059%=      5-min Rain = 0
KHA3 010115Z 05006KT 17/09 A3016 RMK A01 T01670087  RH  059%=      5-min Rain = 0
KHA3 010116Z 05006KT 17/09 A3016 RMK A01 T01670087  RH  059%=      5-min Rain = 0
KHA3 010117Z 05006KT 17/09 A3016 RMK A01 T01670087  RH  059%=      5-min Rain = 0
KHA3 010118Z 05006KT 17/09 A3016 RMK A01 T01660087  RH  060%=      5-min Rain = 0
KHA3 010119Z 06005KT 17/09 A3016 RMK A01 T01660088  RH  060%=      5-min Rain = 0
KHA3 010120Z 06005KT 17/09 A3016 RMK A01 T01660088  RH  060%=      5-min Rain = 0
KHA3 010121Z 06005KT 17/09 A3016 RMK A01 T01650088  RH  060%=      5-min Rain = 0
KHA3 010122Z 06005KT 17/09 A3016 RMK A01 T01650088  RH  060%=      5-min Rain = 0
KHA3 010123Z 05005KT 16/09 A3017 RMK A01 T01640088  RH  060%=      5-min Rain = 0
KHA3 010124Z 06005KT 16/09 A3017 RMK A01 T01640088  RH  061%=      5-min Rain = 0
KHA3 010125Z 06005KT 16/09 A3017 RMK A01 T01640088  RH  061%=      5-min Rain = 0
KHA3 010126Z 06005KT 16/09 A3017 RMK A01 T01640089  RH  061%=      5-min Rain = 0
KHA3 010127Z 06005KT 17/09 A3017 RMK A01 T01650089  RH  061%=      5-min Rain = 0
KHA3 010128Z 06006KT 17/09 A3017 RMK A01 T01650089  RH  061%=      5-min Rain = 0
KHA3 010129Z 06006KT 17/09 A3017 RMK A01 T01650089  RH  061%=      5-min Rain = 0
KHA3 010130Z 06006KT 17/09 A3017 RMK A01 T01650089  RH  061%=      5-min Rain = 0
KHA3 010131Z 06006KT 17/09 A3017 RMK A01 T01650089  RH  061%=      5-min Rain = 0
KHA3 010132Z 05006KT 16/09 A3017 RMK A01 T01640089  RH  061%=      5-min Rain = 0
KHA3 010133Z 05006KT 16/09 A3017 RMK A01 T01640089  RH  061%=      5-min Rain = 0
KHA3 010134Z 05006KT 16/09 A3017 RMK A01 T01630089  RH  061%=      5-min Rain = 0
KHA3 010135Z 05006KT 16/09 A3017 RMK A01 T01640089  RH  061%=      5-min Rain = 0
KHA3 010136Z 05007KT 16/09 A3017 RMK A01 T01630089  RH  061%=      5-min Rain = 0
KHA3 010137Z 05007KT 16/09 A3017 RMK A01 T01640089  RH  061%=      5-min Rain = 0
KHA3 010138Z 05007KT 16/09 A3018 RMK A01 T01630089  RH  061%=      5-min Rain = 0
KHA3 010139Z 05007KT 16/09 A3018 RMK A01 T01630089  RH  061%=      5-min Rain = 0
KHA3 010140Z 05007KT 16/09 A3018 RMK A01 T01630089  RH  061%=      5-min Rain = 0
KHA3 010141Z 05006KT 16/09 A3018 RMK A01 T01630089  RH  061%=      5-min Rain = 0
KHA3 010142Z 05006KT 16/09 A3018 RMK A01 T01630089  RH  062%=      5-min Rain = 0
KHA3 010143Z 05006KT 16/09 A3018 RMK A01 T01630089  RH  061%=      5-min Rain = 0
KHA3 010144Z 05006KT 16/09 A3018 RMK A01 T01630089  RH  061%=      5-min Rain = 0
KHA3 010145Z 05006KT 16/09 A3018 RMK A01 T01630088  RH  061%=      5-min Rain = 0
KHA3 010146Z 05006KT 16/09 A3018 RMK A01 T01630089  RH  061%=      5-min Rain = 0
KHA3 010147Z 05006KT 16/09 A3018 RMK A01 T01630089  RH  061%=      5-min Rain = 0
KHA3 010148Z 05006KT 16/09 A3018 RMK A01 T01630089  RH  061%=      5-min Rain = 0
KHA3 010149Z 05006KT 16/09 A3019 RMK A01 T01620088  RH  062%=      5-min Rain = 0
KHA3 010150Z 05006KT 16/09 A3019 RMK A01 T01630089  RH  061%=      5-min Rain = 0
KHA3 010151Z 05006KT 16/09 A3019 RMK A01 T01620088  RH  061%=      5-min Rain = 0
KHA3 010152Z 05006KT 16/09 A3019 RMK A01 T01630088  RH  061%=      5-min Rain = 0
KHA3 010153Z 05006KT 16/09 A3019 RMK A01 T01630088  RH  061%=      5-min Rain = 0
KHA3 010154Z 05005KT 16/09 A3019 RMK A01 T01630089  RH  061%=      5-min Rain = 0
KHA3 010155Z 05005KT 16/09 A3019 RMK A01 T01630088  RH  061%=      5-min Rain = 0
KHA3 010156Z 04005KT 16/09 A302 RMK A01 T01630089  RH  061%=      5-min Rain = 0
KHA3 010157Z 04004KT 16/09 A302 RMK A01 T01620088  RH  061%=      5-min Rain = 0
KHA3 010158Z 04004KT 16/09 A302 RMK A01 T01630088  RH  061%=      5-min Rain = 0
KHA3 010159Z 04005KT 16/09 A302 RMK A01 T01630089  RH  061%=      5-min Rain = 0
KHA3 010200Z 04005KT 16/09 A302 RMK A01 T01630088  RH  061%=      5-min Rain = 0
KHA3 010201Z 04005KT 16/09 A302 RMK A01 T01640089  RH  061%=      5-min Rain = 0
KHA3 010202Z 04005KT 16/09 A302 RMK A01 T01640088  RH  061%=      5-min Rain = 0
KHA3 010203Z 04005KT 16/09 A302 RMK A01 T01640089  RH  061%=      5-min Rain = 0
KHA3 010204Z 04005KT 16/09 A302 RMK A01 T01640089  RH  061%=      5-min Rain = 0
KHA3 010205Z 05005KT 16/09 A302 RMK A01 T01640089  RH  061%=      5-min Rain = 0
KHA3 010206Z 05005KT 16/09 A302 RMK A01 T01640089  RH  061%=      5-min Rain = 0
KHA3 010207Z 05005KT 17/09 A302 RMK A01 T01650089  RH  061%=      5-min Rain = 0
KHA3 010208Z 05005KT 16/09 A3021 RMK A01 T01640088  RH  061%=      5-min Rain = 0
KHA3 010209Z 05005KT 16/09 A3021 RMK A01 T01630088  RH  061%=      5-min Rain = 0
KHA3 010210Z 06005KT 16/09 A3021 RMK A01 T01630088  RH  061%=      5-min Rain = 0
KHA3 010211Z 06005KT 16/09 A3021 RMK A01 T01630088  RH  061%=      5-min Rain = 0
KHA3 010212Z 06005KT 16/09 A3021 RMK A01 T01620088  RH  061%=      5-min Rain = 0
KHA3 010213Z 06005KT 16/09 A3021 RMK A01 T01620088  RH  062%=      5-min Rain = 0
KHA3 010214Z 06005KT 16/09 A3021 RMK A01 T01620088  RH  062%=      5-min Rain = 0
KHA3 010215Z 05005KT 16/09 A3021 RMK A01 T01610088  RH  062%=      5-min Rain = 0
KHA3 010216Z 05005KT 16/09 A3021 RMK A01 T01610088  RH  062%=      5-min Rain = 0
KHA3 010217Z 06005KT 16/09 A3021 RMK A01 T01600088  RH  062%=      5-min Rain = 0
KHA3 010218Z 05005KT 16/09 A3021 RMK A01 T01600088  RH  062%=      5-min Rain = 0
KHA3 010219Z 05005KT 16/09 A3021 RMK A01 T01600088  RH  062%=      5-min Rain = 0
KHA3 010220Z 07005KT 16/09 A3021 RMK A01 T01610088  RH  062%=      5-min Rain = 0
KHA3 010221Z 06005KT 16/09 A3021 RMK A01 T01610088  RH  062%=      5-min Rain = 0
KHA3 010222Z 05004KT 16/09 A3021 RMK A01 T01610088  RH  062%=      5-min Rain = 0
KHA3 010223Z 06004KT 16/09 A3021 RMK A01 T01620088  RH  062%=      5-min Rain = 0
KHA3 010224Z 07004KT 16/09 A3021 RMK A01 T01610088  RH  062%=      5-min Rain = 0
KHA3 010225Z 06004KT 16/09 A3021 RMK A01 T01600088  RH  062%=      5-min Rain = 0
KHA3 010226Z 06004KT 16/09 A3021 RMK A01 T01600088  RH  062%=      5-min Rain = 0
KHA3 010227Z 07004KT 16/09 A3021 RMK A01 T01590088  RH  062%=      5-min Rain = 0
KHA3 010228Z 07004KT 16/09 A3021 RMK A01 T01590088  RH  063%=      5-min Rain = 0
KHA3 010229Z 07004KT 16/09 A3022 RMK A01 T01590088  RH  063%=      5-min Rain = 0
KHA3 010230Z 06003KT 16/09 A3022 RMK A01 T01590088  RH  063%=      5-min Rain = 0
KHA3 010231Z 06003KT 16/09 A3022 RMK A01 T01590088  RH  063%=      5-min Rain = 0
KHA3 010232Z 06003KT 16/09 A3022 RMK A01 T01590088  RH  063%=      5-min Rain = 0
KHA3 010233Z 06003KT 16/09 A3022 RMK A01 T01590088  RH  063%=      5-min Rain = 0
KHA3 010234Z 05003KT 16/09 A3022 RMK A01 T01590088  RH  062%=      5-min Rain = 0
KHA3 010235Z 05003KT 16/09 A3022 RMK A01 T01590088  RH  062%=      5-min Rain = 0
KHA3 010236Z 06004KT 16/09 A3022 RMK A01 T01600088  RH  062%=      5-min Rain = 0
KHA3 010237Z 05004KT 16/09 A3022 RMK A01 T01610088  RH  062%=      5-min Rain = 0
KHA3 010238Z 05003KT 16/09 A3022 RMK A01 T01610088  RH  062%=      5-min Rain = 0
KHA3 010239Z 05003KT 16/09 A3022 RMK A01 T01610088  RH  062%=      5-min Rain = 0
KHA3 010240Z 05003KT 16/09 A3022 RMK A01 T01610088  RH  062%=      5-min Rain = 0
KHA3 010241Z 05003KT 16/09 A3022 RMK A01 T01610088  RH  062%=      5-min Rain = 0
KHA3 010242Z 04002KT 16/09 A3022 RMK A01 T01600087  RH  062%=      5-min Rain = 0
KHA3 010243Z 04002KT 16/09 A3022 RMK A01 T01610088  RH  062%=      5-min Rain = 0
KHA3 010244Z 04002KT 16/09 A3022 RMK A01 T01600087  RH  062%=      5-min Rain = 0
KHA3 010245Z 03002KT 16/09 A3023 RMK A01 T01600087  RH  062%=      5-min Rain = 0
KHA3 010246Z 03002KT 16/09 A3023 RMK A01 T01600087  RH  062%=      5-min Rain = 0
KHA3 010247Z 03002KT 16/09 A3023 RMK A01 T01600088  RH  062%=      5-min Rain = 0
KHA3 010248Z 03002KT 16/09 A3023 RMK A01 T01600087  RH  062%=      5-min Rain = 0
KHA3 010249Z 03002KT 16/09 A3023 RMK A01 T01590088  RH  062%=      5-min Rain = 0
KHA3 010250Z 03002KT 16/09 A3023 RMK A01 T01590087  RH  062%=      5-min Rain = 0
KHA3 010251Z 03001KT 16/09 A3023 RMK A01 T01580087  RH  062%=      5-min Rain = 0
KHA3 010252Z 03001KT 16/09 A3023 RMK A01 T01570087  RH  063%=      5-min Rain = 0
KHA3 010253Z 03001KT 15/09 A3023 RMK A01 T01530087  RH  065%=      5-min Rain = 0
KHA3 010254Z 03001KT 15/09 A3023 RMK A01 T01500086  RH  065%=      5-min Rain = 0
KHA3 010255Z 03001KT 15/09 A3023 RMK A01 T01480086  RH  066%=      5-min Rain = 0
KHA3 010256Z 03000KT 15/09 A3023 RMK A01 T01470086  RH  067%=      5-min Rain = 0
KHA3 010257Z 02001KT 15/09 A3023 RMK A01 T01460086  RH  067%=      5-min Rain = 0
KHA3 010258Z 01001KT 15/09 A3023 RMK A01 T01460086  RH  067%=      5-min Rain = 0
KHA3 010259Z 02000KT 15/09 A3023 RMK A01 T01470086  RH  067%=      5-min Rain = 0
KHA3 010300Z 01002KT 15/09 A3024 RMK A01 T01470087  RH  067%=      5-min Rain = 0
KHA3 010301Z 01001KT 15/09 A3024 RMK A01 T01480087  RH  067%=      5-min Rain = 0
KHA3 010302Z 01001KT 15/09 A3024 RMK A01 T01490087  RH  066%=      5-min Rain = 0
KHA3 010303Z 00001KT 15/09 A3024 RMK A01 T01500087  RH  066%=      5-min Rain = 0
KHA3 010304Z 00002KT 15/09 A3024 RMK A01 T01500087  RH  066%=      5-min Rain = 0
KHA3 010305Z 00001KT 15/09 A3024 RMK A01 T01500087  RH  066%=      5-min Rain = 0
KHA3 010306Z 36001KT 15/09 A3024 RMK A01 T01490087  RH  066%=      5-min Rain = 0
KHA3 010307Z 00001KT 15/09 A3024 RMK A01 T01480087  RH  067%=      5-min Rain = 0
KHA3 010308Z 00002KT 15/09 A3024 RMK A01 T01480087  RH  067%=      5-min Rain = 0
KHA3 010309Z 02001KT 15/09 A3024 RMK A01 T01480087  RH  067%=      5-min Rain = 0
KHA3 010310Z 03001KT 15/09 A3024 RMK A01 T01480087  RH  067%=      5-min Rain = 0
KHA3 010311Z 02002KT 15/09 A3024 RMK A01 T01480087  RH  067%=      5-min Rain = 0
KHA3 010312Z 00002KT 15/09 A3024 RMK A01 T01480087  RH  067%=      5-min Rain = 0
KHA3 010313Z 35002KT 15/09 A3024 RMK A01 T01480088  RH  067%=      5-min Rain = 0
KHA3 010314Z 35001KT 15/09 A3024 RMK A01 T01480087  RH  067%=      5-min Rain = 0
KHA3 010315Z 33001KT 15/09 A3024 RMK A01 T01480087  RH  067%=      5-min Rain = 0
KHA3 010316Z 31001KT 15/09 A3025 RMK A01 T01470087  RH  067%=      5-min Rain = 0
KHA3 010317Z 30002KT 15/09 A3025 RMK A01 T01460087  RH  068%=      5-min Rain = 0
KHA3 010318Z 29002KT 14/09 A3025 RMK A01 T01440087  RH  068%=      5-min Rain = 0
KHA3 010319Z 30002KT 14/09 A3025 RMK A01 T01440087  RH  068%=      5-min Rain = 0
KHA3 010320Z 31001KT 14/09 A3025 RMK A01 T01430087  RH  069%=      5-min Rain = 0
KHA3 010321Z 30002KT 14/09 A3025 RMK A01 T01430087  RH  069%=      5-min Rain = 0
KHA3 010322Z 31003KT 14/09 A3025 RMK A01 T01420087  RH  069%=      5-min Rain = 0
KHA3 010323Z 31003KT 14/09 A3025 RMK A01 T01420087  RH  069%=      5-min Rain = 0
KHA3 010324Z 32002KT 14/09 A3025 RMK A01 T01420087  RH  070%=      5-min Rain = 0
KHA3 010325Z 35003KT 14/09 A3025 RMK A01 T01410087  RH  070%=      5-min Rain = 0
KHA3 010326Z 32002KT 14/09 A3025 RMK A01 T01400087  RH  070%=      5-min Rain = 0
KHA3 010327Z 32003KT 14/09 A3026 RMK A01 T01400088  RH  071%=      5-min Rain = 0
KHA3 010328Z 32004KT 14/09 A3026 RMK A01 T01400087  RH  071%=      5-min Rain = 0
KHA3 010329Z 32003KT 14/09 A3026 RMK A01 T01400088  RH  071%=      5-min Rain = 0
KHA3 010330Z 32004KT 14/09 A3026 RMK A01 T01400087  RH  071%=      5-min Rain = 0
KHA3 010331Z 32003KT 14/09 A3026 RMK A01 T01390087  RH  071%=      5-min Rain = 0
KHA3 010332Z 32003KT 14/09 A3026 RMK A01 T01390087  RH  071%=      5-min Rain = 0
KHA3 010333Z 31003KT 14/09 A3026 RMK A01 T01390087  RH  071%=      5-min Rain = 0
KHA3 010334Z 30004KT 14/09 A3026 RMK A01 T01380087  RH  071%=      5-min Rain = 0
KHA3 010335Z 31003KT 14/09 A3026 RMK A01 T01380087  RH  071%=      5-min Rain = 0
KHA3 010336Z 31003KT 14/09 A3026 RMK A01 T01380087  RH  072%=      5-min Rain = 0
KHA3 010337Z 32003KT 14/09 A3026 RMK A01 T01370087  RH  072%=      5-min Rain = 0
KHA3 010338Z 31004KT 14/09 A3026 RMK A01 T01360087  RH  072%=      5-min Rain = 0
KHA3 010339Z 30004KT 14/09 A3026 RMK A01 T01360087  RH  072%=      5-min Rain = 0
KHA3 010340Z 30004KT 14/09 A3027 RMK A01 T01350086  RH  073%=      5-min Rain = 0
KHA3 010341Z 30004KT 13/09 A3027 RMK A01 T01340086  RH  073%=      5-min Rain = 0
KHA3 010342Z 30003KT 13/09 A3027 RMK A01 T01340086  RH  073%=      5-min Rain = 0
KHA3 010343Z 30004KT 13/09 A3027 RMK A01 T01330086  RH  073%=      5-min Rain = 0
KHA3 010344Z 29004KT 13/09 A3027 RMK A01 T01330087  RH  073%=      5-min Rain = 0
KHA3 010345Z 29004KT 13/09 A3027 RMK A01 T01330086  RH  074%=      5-min Rain = 0
KHA3 010346Z 29004KT 13/09 A3027 RMK A01 T01320086  RH  074%=      5-min Rain = 0
KHA3 010347Z 29004KT 13/09 A3027 RMK A01 T01310086  RH  074%=      5-min Rain = 0
KHA3 010348Z 29004KT 13/09 A3027 RMK A01 T01310086  RH  074%=      5-min Rain = 0
KHA3 010349Z 29004KT 13/09 A3027 RMK A01 T01300086  RH  074%=      5-min Rain = 0
KHA3 010350Z 29004KT 13/09 A3027 RMK A01 T01290085  RH  075%=      5-min Rain = 0
KHA3 010351Z 30004KT 13/09 A3028 RMK A01 T01290086  RH  075%=      5-min Rain = 0
KHA3 010352Z 30004KT 13/09 A3028 RMK A01 T01280086  RH  075%=      5-min Rain = 0
KHA3 010353Z 30004KT 13/09 A3028 RMK A01 T01270086  RH  076%=      5-min Rain = 0
KHA3 010354Z 30004KT 13/09 A3028 RMK A01 T01270086  RH  076%=      5-min Rain = 0
KHA3 010355Z 30004KT 13/09 A3028 RMK A01 T01260086  RH  076%=      5-min Rain = 0
KHA3 010356Z 30003KT 13/09 A3028 RMK A01 T01260086  RH  077%=      5-min Rain = 0
KHA3 010357Z 30004KT 13/09 A3028 RMK A01 T01250086  RH  077%=      5-min Rain = 0
KHA3 010358Z 30004KT 13/09 A3028 RMK A01 T01250086  RH  077%=      5-min Rain = 0
KHA3 010359Z 31004KT 13/09 A3028 RMK A01 T01250086  RH  077%=      5-min Rain = 0
KHA3 010400Z 31005KT 12/09 A3028 RMK A01 T01240086  RH  078%=      5-min Rain = 0
KHA3 010401Z 31005KT 12/09 A3028 RMK A01 T01230086  RH  078%=      5-min Rain = 0
KHA3 010402Z 32004KT 12/09 A3028 RMK A01 T01220086  RH  078%=      5-min Rain = 0
KHA3 010403Z 32005KT 12/09 A3028 RMK A01 T01220086  RH  079%=      5-min Rain = 0
KHA3 010404Z 32005KT 12/09 A3028 RMK A01 T01220086  RH  079%=      5-min Rain = 0
KHA3 010405Z 32004KT 12/09 A3028 RMK A01 T01210086  RH  079%=      5-min Rain = 0
KHA3 010406Z 32004KT 12/09 A3028 RMK A01 T01210085  RH  079%=      5-min Rain = 0
KHA3 010407Z 33005KT 12/09 A3029 RMK A01 T01220085  RH  078%=      5-min Rain = 0
KHA3 010408Z 33004KT 12/09 A3029 RMK A01 T01220085  RH  078%=      5-min Rain = 0
KHA3 010409Z 34004KT 12/09 A3029 RMK A01 T01220085  RH  078%=      5-min Rain = 0
KHA3 010410Z 34004KT 12/09 A3029 RMK A01 T01230085  RH  078%=      5-min Rain = 0
KHA3 010411Z 33005KT 12/09 A3029 RMK A01 T01230085  RH  078%=      5-min Rain = 0
KHA3 010412Z 34005KT 12/09 A3029 RMK A01 T01230085  RH  078%=      5-min Rain = 0
KHA3 010413Z 34005KT 12/09 A3029 RMK A01 T01230086  RH  078%=      5-min Rain = 0
KHA3 010414Z 34005KT 12/09 A3029 RMK A01 T01230085  RH  078%=      5-min Rain = 0
KHA3 010415Z 34005KT 12/09 A3029 RMK A01 T01240085  RH  077%=      5-min Rain = 0
KHA3 010416Z 34005KT 13/09 A3029 RMK A01 T01250085  RH  077%=      5-min Rain = 0
KHA3 010417Z 34005KT 13/09 A3029 RMK A01 T01250085  RH  077%=      5-min Rain = 0
KHA3 010418Z 35005KT 13/09 A3029 RMK A01 T01250085  RH  077%=      5-min Rain = 0
KHA3 010419Z 34005KT 13/09 A3029 RMK A01 T01250085  RH  077%=      5-min Rain = 0
KHA3 010420Z 34005KT 13/09 A3029 RMK A01 T01250085  RH  077%=      5-min Rain = 0
KHA3 010421Z 33004KT 13/09 A3029 RMK A01 T01250086  RH  077%=      5-min Rain = 0
KHA3 010422Z 33004KT 13/09 A303 RMK A01 T01250086  RH  077%=      5-min Rain = 0
KHA3 010423Z 33004KT 13/09 A303 RMK A01 T01250086  RH  077%=      5-min Rain = 0
KHA3 010424Z 33004KT 13/09 A303 RMK A01 T01250086  RH  077%=      5-min Rain = 0
KHA3 010425Z 32004KT 12/09 A303 RMK A01 T01240085  RH  077%=      5-min Rain = 0
KHA3 010426Z 32004KT 12/09 A303 RMK A01 T01230085  RH  078%=      5-min Rain = 0
KHA3 010427Z 32004KT 12/09 A303 RMK A01 T01220085  RH  078%=      5-min Rain = 0
KHA3 010428Z 32004KT 12/09 A303 RMK A01 T01210085  RH  078%=      5-min Rain = 0
KHA3 010429Z 32004KT 12/09 A303 RMK A01 T01210086  RH  079%=      5-min Rain = 0
KHA3 010430Z 32004KT 12/09 A303 RMK A01 T01210085  RH  079%=      5-min Rain = 0
KHA3 010431Z 32004KT 12/09 A303 RMK A01 T01210085  RH  079%=      5-min Rain = 0
KHA3 010432Z 32005KT 12/09 A303 RMK A01 T01200085  RH  079%=      5-min Rain = 0
KHA3 010433Z 32005KT 12/09 A303 RMK A01 T01200085  RH  079%=      5-min Rain = 0
KHA3 010434Z 32005KT 12/09 A303 RMK A01 T01200085  RH  079%=      5-min Rain = 0
KHA3 010435Z 32004KT 12/09 A303 RMK A01 T01200086  RH  079%=      5-min Rain = 0
KHA3 010436Z 32004KT 12/09 A303 RMK A01 T01200086  RH  079%=      5-min Rain = 0
KHA3 010437Z 32004KT 12/09 A303 RMK A01 T01200085  RH  079%=      5-min Rain = 0
KHA3 010438Z 32004KT 12/09 A303 RMK A01 T01200085  RH  079%=      5-min Rain = 0
KHA3 010439Z 32005KT 12/09 A303 RMK A01 T01200085  RH  079%=      5-min Rain = 0
KHA3 010440Z 32005KT 12/09 A303 RMK A01 T01210085  RH  079%=      5-min Rain = 0
KHA3 010441Z 32005KT 12/09 A303 RMK A01 T01200085  RH  079%=      5-min Rain = 0
KHA3 010442Z 32004KT 12/09 A303 RMK A01 T01200085  RH  079%=      5-min Rain = 0
KHA3 010443Z 32005KT 12/09 A3031 RMK A01 T01190085  RH  079%=      5-min Rain = 0
KHA3 010444Z 31005KT 12/09 A3031 RMK A01 T01200085  RH  079%=      5-min Rain = 0
KHA3 010445Z 31005KT 12/09 A3031 RMK A01 T01190085  RH  079%=      5-min Rain = 0
KHA3 010446Z 31006KT 12/08 A3031 RMK A01 T01180084  RH  080%=      5-min Rain = 0
KHA3 010447Z 31006KT 12/08 A3031 RMK A01 T01170083  RH  080%=      5-min Rain = 0
KHA3 010448Z 31007KT 11/08 A3031 RMK A01 T01140083  RH  081%=      5-min Rain = 0
KHA3 010449Z 31007KT 11/08 A3031 RMK A01 T01130083  RH  082%=      5-min Rain = 0
KHA3 010450Z 31007KT 11/08 A3031 RMK A01 T01130083  RH  082%=      5-min Rain = 0
KHA3 010451Z 31007KT 11/08 A3031 RMK A01 T01110082  RH  082%=      5-min Rain = 0
KHA3 010452Z 31006KT 11/08 A3031 RMK A01 T01100082  RH  083%=      5-min Rain = 0
KHA3 010453Z 32006KT 11/08 A3031 RMK A01 T01090083  RH  084%=      5-min Rain = 0
KHA3 010454Z 32006KT 11/08 A3031 RMK A01 T01100083  RH  084%=      5-min Rain = 0
KHA3 010455Z 32006KT 11/08 A3032 RMK A01 T01090083  RH  084%=      5-min Rain = 0
KHA3 010456Z 32006KT 11/08 A3032 RMK A01 T01090083  RH  084%=      5-min Rain = 0
KHA3 010457Z 32005KT 11/08 A3032 RMK A01 T01090083  RH  084%=      5-min Rain = 0
KHA3 010458Z 32005KT 11/08 A3032 RMK A01 T01090084  RH  084%=      5-min Rain = 0
KHA3 010459Z 32005KT 11/08 A3032 RMK A01 T01100084  RH  084%=      5-min Rain = 0

Page generated in 0.1325 seconds.